CPA271 VHHH-EHAM

Flight info

Callsign CPA271
Flight time N/A
Altitude 27600
Route BEKOL A461 SHL W22 TEPID W24 OSNOV G586 QP B330 ELKAL W179 UDOXO/K0946S0920 W179 IGNAK/K0948S0890 W179 WFX/K0941S0920 W179 OMBON W195 VIDEK/K0943S0890 W195 LAXAL/K0937S0920 W195 IDOPA W197 ANDIM B215 IBANO G470 AKLAS/K0911S0980 W192 FKG A368 SARIN/K0913F320 N161 ABDUN/K0909F340 N161 GASBI/N0490F340 N161 LEYLA N644 ADEKI DCT BADIR DCT LAGAS DCT FOQUS DCT SARPI UM10 OLUPO UL851 KARDE UN644 SIN UW90 INB UL746 ODERO DCT OPT DCT SOKRU/N0480F360 DCT DEGET DCT BEGLA DCT DITIS DCT VARIK DCT KATCE DCT NORKU
Aircraft B77W/H-SDE1E2E3FGHIJ2J3J4J5M1RWXY/LB1D1

Departure

Time 2026-05-06 23:01
Airport Hong Kong International Airport (VHHH)

Arrival

Time N/A
Airport Amsterdam Airport Schiphol (EHAM)
Time Latitude Longitude Altitude Speed Heading
2026-05-06 22:29 22.31331 113.92530 42 ft 0 kts 26°
2026-05-06 22:49 22.31326 113.92528 41 ft 4 kts 26°
2026-05-06 22:50 22.31302 113.92515 39 ft 4 kts 25°
2026-05-06 22:50 22.31281 113.92504 39 ft 4 kts 28°
2026-05-06 22:50 22.31262 113.92487 39 ft 4 kts 75°
2026-05-06 22:50 22.31265 113.92461 36 ft 4 kts 118°
2026-05-06 22:51 22.31277 113.92437 38 ft 2 kts 116°
2026-05-06 22:51 22.31278 113.92436 38 ft 0 kts 115°
2026-05-06 22:53 22.31275 113.92442 41 ft 4 kts 115°
2026-05-06 22:53 22.31232 113.92510 41 ft 17 kts 155°
2026-05-06 22:53 22.31091 113.92458 41 ft 24 kts 206°
2026-05-06 22:53 22.30947 113.92382 41 ft 24 kts 206°
2026-05-06 22:54 22.30912 113.92299 41 ft 14 kts 310°
2026-05-06 22:54 22.31031 113.92241 41 ft 25 kts 341°
2026-05-06 22:54 22.31214 113.92173 41 ft 28 kts 341°
2026-05-06 22:54 22.31400 113.92103 41 ft 28 kts 341°
2026-05-06 22:55 22.31564 113.92041 41 ft 19 kts 341°
2026-05-06 22:55 22.31622 113.91978 41 ft 12 kts 255°
2026-05-06 22:55 22.31577 113.91858 41 ft 26 kts 250°
2026-05-06 22:55 22.31500 113.91621 42 ft 38 kts 251°
2026-05-06 22:56 22.31420 113.91376 42 ft 27 kts 250°
2026-05-06 22:56 22.31357 113.91183 43 ft 27 kts 251°
2026-05-06 22:56 22.31296 113.90989 42 ft 27 kts 251°
2026-05-06 22:56 22.31233 113.90793 42 ft 30 kts 251°
2026-05-06 22:57 22.31166 113.90586 41 ft 28 kts 250°
2026-05-06 22:57 22.31103 113.90393 41 ft 26 kts 251°
2026-05-06 22:57 22.31047 113.90219 41 ft 23 kts 251°
2026-05-06 22:57 22.30996 113.90058 41 ft 19 kts 251°
2026-05-06 22:58 22.30964 113.89958 41 ft 13 kts 251°
2026-05-06 22:58 22.30984 113.89888 41 ft 11 kts 342°
2026-05-06 22:58 22.31061 113.89866 41 ft 11 kts 345°
2026-05-06 22:58 22.31127 113.89890 41 ft 11 kts 65°
2026-05-06 22:59 22.31150 113.89972 42 ft 11 kts 72°
2026-05-06 22:59 22.31165 113.90018 41 ft 0 kts 70°
2026-05-06 23:00 22.31194 113.90105 40 ft 42 kts 70°
2026-05-06 23:00 22.31377 113.90669 41 ft 116 kts 71°
2026-05-06 23:00 22.31720 113.91735 42 ft 182 kts 71°
2026-05-06 23:01 22.32174 113.93161 316 ft 208 kts 71°
2026-05-06 23:01 22.32623 113.94608 1223 ft 201 kts 73°
2026-05-06 23:01 22.33065 113.96048 1902 ft 205 kts 73°
2026-05-06 23:01 22.33490 113.97541 2411 ft 210 kts 80°
2026-05-06 23:02 22.33763 113.99119 2814 ft 223 kts 82°
2026-05-06 23:02 22.33935 114.00220 2861 ft 234 kts 83°
2026-05-06 23:02 22.34310 114.02597 3075 ft 256 kts 82°
2026-05-06 23:02 22.34413 114.04545 3262 ft 263 kts 102°
2026-05-06 23:03 22.33766 114.06384 3649 ft 265 kts 127°
2026-05-06 23:03 22.32965 114.07370 4013 ft 263 kts 142°
2026-05-06 23:03 22.31402 114.08354 4579 ft 262 kts 163°
2026-05-06 23:03 22.29605 114.08709 5012 ft 264 kts 178°
2026-05-06 23:04 22.27756 114.08747 5480 ft 268 kts 181°
2026-05-06 23:04 22.25872 114.08741 5909 ft 275 kts 181°
2026-05-06 23:04 22.23928 114.08714 6288 ft 284 kts 182°
2026-05-06 23:04 22.21938 114.08680 6767 ft 288 kts 182°
2026-05-06 23:05 22.19924 114.08665 7285 ft 289 kts 179°
2026-05-06 23:05 22.17966 114.09166 7589 ft 297 kts 150°
2026-05-06 23:05 22.16486 114.10727 7974 ft 305 kts 121°
2026-05-06 23:05 22.15799 114.12908 8121 ft 313 kts 96°
2026-05-06 23:06 22.15689 114.15258 8530 ft 315 kts 94°
2026-05-06 23:06 22.15545 114.17626 9050 ft 317 kts 95°
2026-05-06 23:06 22.15383 114.20003 9585 ft 319 kts 95°
2026-05-06 23:06 22.15228 114.22405 10061 ft 323 kts 95°
2026-05-06 23:07 22.15193 114.24842 10243 ft 332 kts 81°
2026-05-06 23:07 22.16012 114.27193 10328 ft 344 kts 53°
2026-05-06 23:07 22.17726 114.29031 10458 ft 356 kts 31°
2026-05-06 23:07 22.20016 114.30125 10573 ft 368 kts 10°
2026-05-06 23:08 22.22598 114.30329 10724 ft 377 kts 352°
2026-05-06 23:08 22.25183 114.29769 11018 ft 381 kts 338°
2026-05-06 23:08 22.27614 114.28590 11412 ft 385 kts 329°
2026-05-06 23:08 22.29966 114.27178 11944 ft 388 kts 327°
2026-05-06 23:09 22.32310 114.25733 12516 ft 390 kts 328°
2026-05-06 23:09 22.34684 114.24306 13063 ft 393 kts 329°
2026-05-06 23:09 22.37106 114.22897 13580 ft 397 kts 329°
2026-05-06 23:09 22.39562 114.21502 14056 ft 400 kts 330°
2026-05-06 23:10 22.42043 114.20115 14537 ft 403 kts 330°
2026-05-06 23:10 22.44524 114.18691 15021 ft 404 kts 328°
2026-05-06 23:10 22.46988 114.17228 15514 ft 406 kts 329°
2026-05-06 23:10 22.49503 114.15816 15977 ft 409 kts 331°
2026-05-06 23:11 22.52010 114.14485 16441 ft 411 kts 332°
2026-05-06 23:11 22.54591 114.13138 16891 ft 414 kts 332°
2026-05-06 23:11 22.57200 114.11795 17322 ft 417 kts 332°
2026-05-06 23:11 22.59832 114.10453 17756 ft 419 kts 332°
2026-05-06 23:12 22.62483 114.09104 18185 ft 422 kts 332°
2026-05-06 23:12 22.65147 114.07745 18564 ft 424 kts 332°
2026-05-06 23:12 22.67819 114.06380 18960 ft 426 kts 332°
2026-05-06 23:12 22.70503 114.05006 19354 ft 427 kts 332°
2026-05-06 23:13 22.73198 114.03625 19741 ft 429 kts 332°
2026-05-06 23:13 22.75907 114.02236 20088 ft 432 kts 332°
2026-05-06 23:13 22.78629 114.00838 20440 ft 434 kts 332°
2026-05-06 23:13 22.81365 113.99433 20800 ft 436 kts 332°
2026-05-06 23:14 22.84099 113.98028 21147 ft 439 kts 332°
2026-05-06 23:14 22.86859 113.96610 21486 ft 441 kts 332°
2026-05-06 23:14 22.89640 113.95181 21834 ft 443 kts 332°
2026-05-06 23:14 22.92429 113.93739 22172 ft 445 kts 332°
2026-05-06 23:15 22.95227 113.92282 22512 ft 447 kts 332°
2026-05-06 23:15 22.98029 113.90820 22850 ft 449 kts 332°
2026-05-06 23:15 23.00853 113.89349 23163 ft 451 kts 332°
2026-05-06 23:15 23.03687 113.87873 23456 ft 453 kts 332°
2026-05-06 23:16 23.06514 113.86360 23731 ft 454 kts 329°
2026-05-06 23:16 23.09198 113.84551 23982 ft 454 kts 322°
2026-05-06 23:16 23.11693 113.82458 24261 ft 453 kts 317°
2026-05-06 23:16 23.13974 113.80097 24527 ft 453 kts 313°
2026-05-06 23:17 23.16202 113.77685 24807 ft 455 kts 314°
2026-05-06 23:17 23.18482 113.75276 25059 ft 456 kts 314°
2026-05-06 23:17 23.20767 113.72884 25322 ft 457 kts 314°
2026-05-06 23:17 23.23062 113.70488 25605 ft 458 kts 314°
2026-05-06 23:18 23.25360 113.68087 25852 ft 459 kts 314°
2026-05-06 23:18 23.27666 113.65674 26095 ft 461 kts 314°
2026-05-06 23:18 23.29976 113.63252 26329 ft 462 kts 314°
2026-05-06 23:18 23.32292 113.60822 26569 ft 463 kts 314°
2026-05-06 23:19 23.34612 113.58386 26795 ft 465 kts 314°
2026-05-06 23:19 23.36939 113.55940 27036 ft 466 kts 314°
2026-05-06 23:19 23.39259 113.53501 27266 ft 468 kts 314°
2026-05-06 23:19 23.41603 113.51036 27501 ft 469 kts 314°
2026-05-06 23:20 23.43951 113.48565 27728 ft 470 kts 314°
2026-05-06 23:20 23.46308 113.46082 27883 ft 473 kts 314°
2026-05-06 23:20 23.48686 113.43577 27919 ft 475 kts 314°
2026-05-06 23:20 23.51043 113.41093 27961 ft 477 kts 314°
2026-05-06 23:21 23.53450 113.38555 27960 ft 480 kts 314°
2026-05-06 23:21 23.55847 113.36002 27989 ft 483 kts 313°
2026-05-06 23:21 23.58235 113.33427 27972 ft 486 kts 313°
2026-05-06 23:21 23.60650 113.30821 27989 ft 489 kts 313°
2026-05-06 23:22 23.63066 113.28203 27977 ft 491 kts 311°
2026-05-06 23:22 23.65299 113.25396 27967 ft 491 kts 305°
2026-05-06 23:22 23.67134 113.22512 27996 ft 491 kts 301°
2026-05-06 23:22 23.68865 113.19297 27976 ft 493 kts 296°
2026-05-06 23:23 23.70299 113.15903 27983 ft 492 kts 291°
2026-05-06 23:23 23.71637 113.12454 27977 ft 493 kts 292°
2026-05-06 23:23 23.73040 113.09030 27981 ft 494 kts 293°
2026-05-06 23:23 23.74455 113.05630 27984 ft 493 kts 293°
2026-05-06 23:24 23.75957 113.02285 27968 ft 488 kts 300°
2026-05-06 23:24 23.77968 112.99558 28009 ft 492 kts 315°
2026-05-06 23:24 23.80714 112.97312 28001 ft 497 kts 327°
2026-05-06 23:24 23.83870 112.95691 27978 ft 504 kts 339°
2026-05-06 23:25 23.87276 112.94697 27997 ft 508 kts 343°
2026-05-06 23:25 23.90699 112.93731 27987 ft 508 kts 340°
2026-05-06 23:25 23.94081 112.92620 28000 ft 508 kts 339°
2026-05-06 23:25 23.97458 112.91468 27981 ft 509 kts 339°
2026-05-06 23:26 24.00840 112.90317 27982 ft 509 kts 339°
2026-05-06 23:26 24.04228 112.89178 27979 ft 509 kts 340°
2026-05-06 23:26 24.07576 112.88064 27983 ft 509 kts 340°
2026-05-06 23:26 24.10966 112.86940 27981 ft 509 kts 340°
2026-05-06 23:27 24.14344 112.85819 27976 ft 508 kts 340°
2026-05-06 23:27 24.17724 112.84698 27988 ft 508 kts 340°
2026-05-06 23:27 24.21145 112.83564 27994 ft 507 kts 340°
2026-05-06 23:27 24.24480 112.82457 27984 ft 507 kts 340°
2026-05-06 23:28 24.27892 112.81324 27981 ft 507 kts 340°
2026-05-06 23:28 24.31274 112.80201 27981 ft 507 kts 340°
2026-05-06 23:28 24.34645 112.79080 27985 ft 506 kts 340°
2026-05-06 23:28 24.38021 112.77957 27992 ft 506 kts 339°
2026-05-06 23:29 24.41371 112.76815 27981 ft 501 kts 336°
2026-05-06 23:29 24.44439 112.75135 27981 ft 490 kts 320°
2026-05-06 23:29 24.46840 112.72522 28006 ft 484 kts 303°
2026-05-06 23:29 24.48561 112.69371 27996 ft 484 kts 294°
2026-05-06 23:30 24.49812 112.65925 27978 ft 484 kts 285°
2026-05-06 23:30 24.50412 112.62312 27992 ft 481 kts 275°
2026-05-06 23:30 24.50695 112.58653 27976 ft 483 kts 275°
2026-05-06 23:30 24.50981 112.54974 27988 ft 484 kts 275°
2026-05-06 23:31 24.51288 112.51278 27982 ft 486 kts 275°
2026-05-06 23:31 24.51616 112.47582 27989 ft 488 kts 275°
2026-05-06 23:31 24.51959 112.43877 27996 ft 489 kts 276°
2026-05-06 23:31 24.52313 112.40160 27983 ft 490 kts 276°
2026-05-06 23:32 24.52669 112.36447 27979 ft 489 kts 276°
2026-05-06 23:32 24.53028 112.32727 27967 ft 489 kts 276°
2026-05-06 23:32 24.53384 112.29019 27953 ft 488 kts 276°
2026-05-06 23:32 24.53739 112.25311 27972 ft 487 kts 276°
2026-05-06 23:33 24.54091 112.21621 27985 ft 487 kts 276°
2026-05-06 23:33 24.54442 112.17927 27971 ft 486 kts 276°
2026-05-06 23:33 24.54793 112.14228 27980 ft 486 kts 276°
2026-05-06 23:33 24.55142 112.10535 27981 ft 486 kts 276°
2026-05-06 23:34 24.55490 112.06838 27983 ft 486 kts 276°
2026-05-06 23:34 24.55835 112.03143 27971 ft 486 kts 276°
2026-05-06 23:34 24.56180 111.99452 27970 ft 486 kts 276°
2026-05-06 23:34 24.56524 111.95755 27974 ft 486 kts 276°
2026-05-06 23:35 24.56870 111.92054 27970 ft 487 kts 276°
2026-05-06 23:35 24.57213 111.88360 27963 ft 487 kts 276°
2026-05-06 23:35 24.57557 111.84657 27964 ft 487 kts 276°
2026-05-06 23:35 24.57899 111.80957 27964 ft 487 kts 276°
2026-05-06 23:36 24.58238 111.77267 27941 ft 487 kts 276°
2026-05-06 23:36 24.58576 111.73580 27943 ft 487 kts 276°
2026-05-06 23:36 24.58914 111.69894 27943 ft 487 kts 276°
2026-05-06 23:36 24.59253 111.66189 27952 ft 487 kts 276°
2026-05-06 23:37 24.59590 111.62490 27946 ft 487 kts 276°
2026-05-06 23:37 24.59926 111.58786 27932 ft 487 kts 276°
2026-05-06 23:37 24.60259 111.55091 27964 ft 486 kts 276°
2026-05-06 23:37 24.60594 111.51384 27944 ft 487 kts 276°
2026-05-06 23:38 24.60928 111.47687 27942 ft 487 kts 276°
2026-05-06 23:38 24.61263 111.43977 27943 ft 487 kts 276°
2026-05-06 23:38 24.61594 111.40280 27942 ft 487 kts 276°
2026-05-06 23:38 24.61924 111.36574 27943 ft 487 kts 276°
2026-05-06 23:39 24.62254 111.32870 27950 ft 487 kts 276°
2026-05-06 23:39 24.62583 111.29161 27938 ft 488 kts 276°
2026-05-06 23:39 24.62909 111.25458 27933 ft 487 kts 276°
2026-05-06 23:39 24.63232 111.21751 27929 ft 487 kts 276°
2026-05-06 23:40 24.63553 111.18053 27941 ft 487 kts 276°
2026-05-06 23:40 24.63873 111.14349 27938 ft 487 kts 276°
2026-05-06 23:40 24.64193 111.10644 27933 ft 486 kts 276°
2026-05-06 23:40 24.64510 111.06943 27927 ft 486 kts 276°
2026-05-06 23:41 24.64826 111.03236 27933 ft 486 kts 276°
2026-05-06 23:41 24.65145 110.99549 27936 ft 486 kts 276°
2026-05-06 23:41 24.65463 110.95850 27926 ft 487 kts 276°
2026-05-06 23:41 24.65780 110.92136 27923 ft 487 kts 275°
2026-05-06 23:42 24.66094 110.88441 27922 ft 487 kts 276°
2026-05-06 23:42 24.66408 110.84737 27919 ft 486 kts 276°
2026-05-06 23:42 24.66988 110.81092 27917 ft 483 kts 287°
2026-05-06 23:42 24.68288 110.77694 27930 ft 485 kts 298°
2026-05-06 23:43 24.69446 110.75590 27931 ft 487 kts 303°
2026-05-06 23:43 24.71553 110.72666 27916 ft 491 kts 312°
2026-05-06 23:43 24.74036 110.70093 27920 ft 492 kts 315°
2026-05-06 23:43 24.76563 110.67549 27912 ft 493 kts 315°
2026-05-06 23:44 24.79071 110.64970 27924 ft 494 kts 314°
2026-05-06 23:44 24.81559 110.62373 27924 ft 494 kts 314°
2026-05-06 23:44 24.84045 110.59755 27908 ft 494 kts 314°
2026-05-06 23:44 24.86520 110.57137 27900 ft 493 kts 314°
2026-05-06 23:45 24.88990 110.54524 27904 ft 493 kts 314°
2026-05-06 23:45 24.91458 110.51911 27909 ft 492 kts 314°
2026-05-06 23:45 24.93924 110.49302 27903 ft 491 kts 314°
2026-05-06 23:45 24.96388 110.46693 27894 ft 490 kts 314°
2026-05-06 23:46 24.98872 110.44064 27896 ft 489 kts 314°
2026-05-06 23:46 25.01328 110.41463 27900 ft 488 kts 314°
2026-05-06 23:46 25.03772 110.38879 27903 ft 487 kts 314°
2026-05-06 23:46 25.06221 110.36296 27902 ft 488 kts 314°
2026-05-06 23:47 25.08679 110.33704 27965 ft 489 kts 314°
2026-05-06 23:47 25.11138 110.31109 28106 ft 489 kts 314°
2026-05-06 23:47 25.13577 110.28531 28273 ft 488 kts 314°
2026-05-06 23:48 25.18504 110.23317 28450 ft 490 kts 314°
2026-05-06 23:48 25.20959 110.20718 28650 ft 488 kts 314°
2026-05-06 23:48 25.23412 110.18138 28854 ft 487 kts 314°
2026-05-06 23:48 25.25865 110.15574 29009 ft 486 kts 314°
2026-05-06 23:49 25.28323 110.13009 29143 ft 485 kts 314°
2026-05-06 23:49 25.30772 110.10451 29395 ft 482 kts 314°
2026-05-06 23:49 25.33198 110.07914 29609 ft 481 kts 314°
2026-05-06 23:49 25.35627 110.05369 29727 ft 480 kts 314°
2026-05-06 23:50 25.38081 110.02793 29806 ft 480 kts 314°
2026-05-06 23:50 25.45314 109.95193 29892 ft 481 kts 314°
2026-05-06 23:51 25.50176 109.90077 29871 ft 484 kts 314°
2026-05-06 23:51 25.55090 109.84902 29868 ft 486 kts 314°
2026-05-06 23:52 25.59991 109.79733 29879 ft 488 kts 314°
2026-05-06 23:52 25.64882 109.74565 29894 ft 491 kts 314°
2026-05-06 23:53 25.69838 109.69326 29891 ft 494 kts 314°
2026-05-06 23:53 25.74774 109.63947 29894 ft 493 kts 308°
2026-05-06 23:54 25.78403 109.57542 29906 ft 492 kts 294°
2026-05-06 23:54 25.80546 109.50497 29916 ft 492 kts 285°
2026-05-06 23:55 25.82400 109.43142 29903 ft 493 kts 284°
2026-05-06 23:55 25.84313 109.35869 29948 ft 494 kts 284°
2026-05-06 23:56 25.86240 109.28562 29917 ft 493 kts 285°
2026-05-06 23:56 25.88152 109.21280 29914 ft 490 kts 285°
2026-05-06 23:57 25.90045 109.14024 29921 ft 489 kts 284°
2026-05-06 23:57 25.91943 109.06741 29940 ft 486 kts 285°
2026-05-06 23:58 25.93780 108.99732 29933 ft 484 kts 285°
2026-05-06 23:58 25.95691 108.92510 29930 ft 483 kts 285°
2026-05-06 23:59 25.97580 108.85349 29952 ft 482 kts 285°
2026-05-06 23:59 25.99459 108.78200 29950 ft 483 kts 285°
2026-05-07 00:00 26.01339 108.71039 29939 ft 482 kts 285°
2026-05-07 00:00 26.03251 108.63890 29973 ft 482 kts 285°
2026-05-07 00:01 26.05163 108.56757 29978 ft 481 kts 285°
2026-05-07 00:01 26.07067 108.49611 29971 ft 481 kts 285°
2026-05-07 00:02 26.08967 108.42473 29971 ft 482 kts 285°
2026-05-07 00:02 26.11414 108.35531 29987 ft 483 kts 295°
2026-05-07 00:03 26.14424 108.28847 29962 ft 483 kts 294°
2026-05-07 00:03 26.17335 108.22103 29967 ft 484 kts 294°
2026-05-07 00:04 26.20232 108.15347 29985 ft 483 kts 294°
2026-05-07 00:04 26.23129 108.08600 29984 ft 484 kts 294°
2026-05-07 00:05 26.26039 108.01830 29998 ft 484 kts 294°
2026-05-07 00:05 26.28946 107.95058 30015 ft 484 kts 294°
2026-05-07 00:06 26.31848 107.88286 30003 ft 485 kts 294°
2026-05-07 00:06 26.34751 107.81498 30018 ft 485 kts 294°
2026-05-07 00:07 26.37650 107.74718 30007 ft 484 kts 294°
2026-05-07 00:07 26.40538 107.67944 30013 ft 483 kts 294°
2026-05-07 00:08 26.43418 107.61176 30025 ft 483 kts 294°
2026-05-07 00:08 26.46297 107.54400 30031 ft 483 kts 294°
2026-05-07 00:09 26.49178 107.47642 30035 ft 483 kts 294°
2026-05-07 00:09 26.52081 107.40887 30054 ft 483 kts 294°
2026-05-07 00:10 26.54981 107.34114 30050 ft 484 kts 294°
2026-05-07 00:10 26.57846 107.27312 30078 ft 484 kts 294°
2026-05-07 00:11 26.60703 107.20493 30056 ft 485 kts 294°
2026-05-07 00:11 26.63562 107.13680 30088 ft 484 kts 294°
2026-05-07 00:12 26.66451 107.06879 30099 ft 485 kts 294°
2026-05-07 00:12 26.69356 107.00066 30108 ft 485 kts 294°
2026-05-07 00:13 26.72245 106.93260 30098 ft 484 kts 294°
2026-05-07 00:13 26.75125 106.86457 30126 ft 483 kts 294°
2026-05-07 00:14 26.78328 106.79882 30102 ft 484 kts 303°
2026-05-07 00:14 26.82650 106.74085 30108 ft 486 kts 313°
2026-05-07 00:15 26.87753 106.69087 30113 ft 487 kts 316°
2026-05-07 00:15 26.92877 106.64118 30110 ft 487 kts 316°
2026-05-07 00:16 26.97979 106.59106 30114 ft 488 kts 316°
2026-05-07 00:16 27.03083 106.54082 30107 ft 489 kts 316°
2026-05-07 00:17 27.08196 106.49048 30114 ft 489 kts 316°
2026-05-07 00:17 27.13313 106.44004 30115 ft 490 kts 316°
2026-05-07 00:18 27.18423 106.38961 30108 ft 489 kts 316°
2026-05-07 00:18 27.23542 106.33938 30123 ft 489 kts 316°
2026-05-07 00:19 27.28698 106.28939 30122 ft 489 kts 316°
2026-05-07 00:19 27.33847 106.23940 30111 ft 489 kts 316°
2026-05-07 00:20 27.38153 106.19745 30124 ft 489 kts 316°
2026-05-07 00:20 27.43295 106.14725 30131 ft 490 kts 316°
2026-05-07 00:21 27.48446 106.09688 30123 ft 490 kts 316°
2026-05-07 00:21 27.53568 106.04674 30124 ft 491 kts 316°
2026-05-07 00:22 27.58721 105.99628 30125 ft 491 kts 316°
2026-05-07 00:22 27.63909 105.94535 30126 ft 492 kts 316°
2026-05-07 00:23 27.69053 105.89459 30127 ft 490 kts 314°
2026-05-07 00:23 27.73188 105.83443 30138 ft 485 kts 297°
2026-05-07 00:24 27.75757 105.76441 30120 ft 483 kts 284°
2026-05-07 00:24 27.77684 105.69175 30127 ft 484 kts 287°
2026-05-07 00:25 27.79761 105.61942 30128 ft 484 kts 288°
2026-05-07 00:25 27.82406 105.54953 30122 ft 484 kts 292°
2026-05-07 00:26 27.85104 105.48009 30137 ft 483 kts 291°
2026-05-07 00:26 27.87756 105.41081 30130 ft 483 kts 292°
2026-05-07 00:27 27.90667 105.34244 30136 ft 483 kts 295°
2026-05-07 00:27 27.93702 105.27467 30121 ft 483 kts 294°
2026-05-07 00:28 27.96822 105.20744 30117 ft 485 kts 301°
2026-05-07 00:28 28.01415 105.15083 30136 ft 494 kts 317°
2026-05-07 00:29 28.07202 105.10815 30128 ft 500 kts 326°
2026-05-07 00:30 28.19126 105.02576 30105 ft 503 kts 324°
2026-05-07 00:30 28.25088 104.98390 30106 ft 504 kts 324°
2026-05-07 00:31 28.31044 104.94217 30079 ft 503 kts 325°
2026-05-07 00:31 28.36987 104.90046 30091 ft 502 kts 324°
2026-05-07 00:32 28.42927 104.85877 30102 ft 502 kts 325°
2026-05-07 00:32 28.48873 104.81720 30083 ft 502 kts 325°
2026-05-07 00:33 28.54825 104.77550 30081 ft 502 kts 325°
2026-05-07 00:33 28.60773 104.73375 30080 ft 502 kts 325°
2026-05-07 00:34 28.66713 104.69197 30080 ft 502 kts 324°
2026-05-07 00:34 28.72659 104.65011 30076 ft 502 kts 324°
2026-05-07 00:35 28.78598 104.60823 30084 ft 502 kts 324°
2026-05-07 00:35 28.84535 104.56630 30074 ft 502 kts 324°
2026-05-07 00:36 28.90461 104.52431 30074 ft 501 kts 324°
2026-05-07 00:36 28.96346 104.48244 30085 ft 501 kts 324°
2026-05-07 00:37 29.02257 104.44032 30082 ft 501 kts 324°
2026-05-07 00:37 29.08162 104.39820 30086 ft 500 kts 324°
2026-05-07 00:38 29.14061 104.35607 30079 ft 500 kts 324°
2026-05-07 00:38 29.19955 104.31392 30079 ft 499 kts 324°
2026-05-07 00:39 29.26080 104.27734 30078 ft 504 kts 341°
2026-05-07 00:39 29.29549 104.26992 30092 ft 511 kts 352°
2026-05-07 00:39 29.33127 104.26986 30079 ft 519 kts
2026-05-07 00:40 29.40278 104.28317 30072 ft 522 kts
2026-05-07 00:40 29.47449 104.29630 30069 ft 523 kts
2026-05-07 00:41 29.54647 104.30866 30096 ft 523 kts
2026-05-07 00:41 29.61855 104.32084 30100 ft 523 kts
2026-05-07 00:42 29.69052 104.33309 30082 ft 522 kts
2026-05-07 00:42 29.76233 104.34535 30079 ft 521 kts
2026-05-07 00:43 29.83389 104.35760 30082 ft 520 kts
2026-05-07 00:43 29.90546 104.36986 30094 ft 519 kts
2026-05-07 00:44 29.97689 104.38211 30084 ft 519 kts
2026-05-07 00:44 30.04841 104.39440 30081 ft 520 kts
2026-05-07 00:45 30.12001 104.40672 30073 ft 520 kts
2026-05-07 00:45 30.19158 104.41912 30089 ft 521 kts
2026-05-07 00:46 30.26331 104.43167 30104 ft 521 kts
2026-05-07 00:46 30.33498 104.44423 30110 ft 521 kts
2026-05-07 00:47 30.40665 104.45679 30102 ft 521 kts
2026-05-07 00:47 30.47826 104.46936 30099 ft 521 kts
2026-05-07 00:48 30.54996 104.48189 30090 ft 520 kts
2026-05-07 00:48 30.62123 104.48202 30089 ft 508 kts 347°
2026-05-07 00:49 30.68883 104.46173 30092 ft 499 kts 335°
2026-05-07 00:49 30.75453 104.43497 30099 ft 502 kts 337°
2026-05-07 00:50 30.82095 104.40973 30087 ft 502 kts 337°
2026-05-07 00:50 30.88925 104.39113 30088 ft 509 kts 347°
2026-05-07 00:51 30.96050 104.38693 30102 ft 514 kts 355°
2026-05-07 00:51 31.03207 104.38587 30093 ft 515 kts 354°
2026-05-07 00:52 31.10376 104.38395 30109 ft 515 kts 354°
2026-05-07 00:52 31.17544 104.38197 30101 ft 515 kts 354°
2026-05-07 00:53 31.24711 104.38007 30092 ft 516 kts 354°
2026-05-07 00:53 31.31870 104.37674 30098 ft 515 kts 352°
2026-05-07 00:54 31.39013 104.37216 30100 ft 515 kts 352°
2026-05-07 00:54 31.46168 104.36777 30101 ft 514 kts 352°
2026-05-07 00:55 31.53323 104.36361 30130 ft 514 kts 353°
2026-05-07 00:55 31.60470 104.35949 30120 ft 514 kts 352°
2026-05-07 00:56 31.67619 104.35538 30147 ft 514 kts 353°
2026-05-07 00:56 31.74747 104.35118 30126 ft 512 kts 353°
2026-05-07 00:57 31.81866 104.34754 30165 ft 511 kts 355°
2026-05-07 00:57 31.88926 104.34586 30179 ft 508 kts 352°
2026-05-07 00:58 31.95986 104.34075 30223 ft 510 kts 352°
2026-05-07 00:58 32.03119 104.33622 30199 ft 516 kts 353°
2026-05-07 00:59 32.12646 104.33314 30216 ft 509 kts 354°
2026-05-07 01:00 32.19747 104.32882 30211 ft 512 kts 352°
2026-05-07 01:00 32.28071 104.32354 30208 ft 518 kts 353°
2026-05-07 01:01 32.34120 104.32049 30228 ft 520 kts 353°
2026-05-07 01:01 32.41353 104.31683 30219 ft 520 kts 353°
2026-05-07 01:02 32.48579 104.31317 30217 ft 518 kts 353°
2026-05-07 01:02 32.55763 104.30959 30240 ft 515 kts 353°
2026-05-07 01:03 32.62917 104.30603 30263 ft 514 kts 353°
2026-05-07 01:03 32.70055 104.30265 30236 ft 513 kts 353°
2026-05-07 01:04 32.77174 104.29925 30257 ft 511 kts 353°
2026-05-07 01:04 32.84275 104.29588 30260 ft 510 kts 353°
2026-05-07 01:05 32.91371 104.29241 30273 ft 511 kts 353°
2026-05-07 01:05 32.98486 104.28895 30273 ft 513 kts 353°
2026-05-07 01:06 33.05632 104.28555 30259 ft 514 kts 353°
2026-05-07 01:06 33.12782 104.28216 30269 ft 514 kts 353°
2026-05-07 01:07 33.19919 104.27862 30278 ft 515 kts 353°
2026-05-07 01:07 33.27095 104.27515 30265 ft 516 kts 353°
2026-05-07 01:08 33.34203 104.26708 30257 ft 508 kts 341°
2026-05-07 01:08 33.40755 104.23827 30263 ft 497 kts 327°
2026-05-07 01:09 33.46666 104.19612 30290 ft 494 kts 325°
2026-05-07 01:09 33.52638 104.15544 30310 ft 494 kts 326°
2026-05-07 01:10 33.58947 104.12192 30300 ft 503 kts 340°
2026-05-07 01:10 33.65945 104.10996 30304 ft 516 kts 355°
2026-05-07 01:11 33.73147 104.11141 30306 ft 518 kts 356°
2026-05-07 01:11 33.80378 104.11201 30292 ft 520 kts 355°
2026-05-07 01:12 33.87610 104.11211 30262 ft 519 kts 356°
2026-05-07 01:12 33.94825 104.11214 30293 ft 519 kts 355°
2026-05-07 01:13 34.02033 104.11188 30295 ft 518 kts 355°
2026-05-07 01:13 34.09226 104.11189 30297 ft 516 kts 355°
2026-05-07 01:14 34.16390 104.11196 30307 ft 514 kts 355°
2026-05-07 01:14 34.23537 104.11198 30318 ft 513 kts 356°
2026-05-07 01:15 34.30651 104.11200 30316 ft 511 kts 356°
2026-05-07 01:15 34.37758 104.11198 30322 ft 510 kts 356°
2026-05-07 01:16 34.44861 104.11197 30341 ft 510 kts 356°
2026-05-07 01:16 34.51900 104.11197 30338 ft 511 kts 356°
2026-05-07 01:17 34.59087 104.11197 30337 ft 512 kts 356°
2026-05-07 01:17 34.66209 104.11196 30333 ft 513 kts 356°
2026-05-07 01:18 34.73359 104.11198 30336 ft 514 kts 356°
2026-05-07 01:18 34.80519 104.11198 30343 ft 514 kts 355°
2026-05-07 01:19 34.87671 104.11197 30343 ft 515 kts 356°
2026-05-07 01:19 34.94833 104.11199 30347 ft 515 kts 355°
2026-05-07 01:20 35.02009 104.11203 30351 ft 515 kts 355°
2026-05-07 01:20 35.09181 104.11198 30329 ft 516 kts 355°
2026-05-07 01:21 35.16362 104.11196 30338 ft 516 kts 355°
2026-05-07 01:21 35.23548 104.11198 30338 ft 516 kts 355°
2026-05-07 01:22 35.30724 104.11199 30337 ft 515 kts 355°
2026-05-07 01:22 35.37886 104.11201 30356 ft 515 kts 355°
2026-05-07 01:23 35.45047 104.11200 30365 ft 514 kts 355°
2026-05-07 01:23 35.52193 104.11202 30345 ft 513 kts 355°
2026-05-07 01:24 35.59307 104.11224 30349 ft 511 kts 355°
2026-05-07 01:24 35.66422 104.11250 30344 ft 510 kts 355°
2026-05-07 01:25 35.73512 104.11272 30354 ft 510 kts 355°
2026-05-07 01:25 35.80615 104.11293 30349 ft 510 kts 355°
2026-05-07 01:26 35.87683 104.10993 30349 ft 507 kts 350°
2026-05-07 01:26 35.94694 104.10126 30361 ft 507 kts 349°
2026-05-07 01:27 36.01723 104.09260 30352 ft 508 kts 349°
2026-05-07 01:27 36.08763 104.08484 30357 ft 508 kts 350°
2026-05-07 01:28 36.15813 104.07726 30384 ft 508 kts 349°
2026-05-07 01:28 36.22827 104.06963 30356 ft 505 kts 349°
2026-05-07 01:29 36.29808 104.06197 30342 ft 502 kts 349°
2026-05-07 01:29 36.36751 104.05433 30350 ft 500 kts 349°
2026-05-07 01:30 36.43669 104.04675 30361 ft 499 kts 349°
2026-05-07 01:30 36.50567 104.03918 30355 ft 497 kts 349°
2026-05-07 01:31 36.57376 104.02934 30340 ft 482 kts 338°
2026-05-07 01:31 36.60374 104.01268 30365 ft 468 kts 320°
2026-05-07 01:31 36.62840 103.98671 30364 ft 463 kts 309°
2026-05-07 01:32 36.66404 103.92092 30365 ft 458 kts 295°
2026-05-07 01:32 36.69347 103.85055 30370 ft 459 kts 295°
2026-05-07 01:33 36.72351 103.78016 30370 ft 460 kts 295°
2026-05-07 01:33 36.75381 103.71002 30371 ft 460 kts 296°
2026-05-07 01:34 36.78421 103.63975 30377 ft 460 kts 296°
2026-05-07 01:34 36.81448 103.56963 30380 ft 459 kts 296°
2026-05-07 01:35 36.84469 103.49945 30387 ft 458 kts 295°
2026-05-07 01:35 36.87484 103.42924 30387 ft 459 kts 295°
2026-05-07 01:36 36.90496 103.35894 30381 ft 460 kts 295°
2026-05-07 01:36 36.93517 103.28850 30391 ft 460 kts 296°
2026-05-07 01:37 36.96897 103.22022 30391 ft 462 kts 299°
2026-05-07 01:37 37.00337 103.15237 30387 ft 461 kts 299°
2026-05-07 01:38 37.03752 103.08452 30376 ft 460 kts 299°
2026-05-07 01:38 37.06576 103.02822 30390 ft 459 kts 299°
2026-05-07 01:39 37.09971 102.96043 30376 ft 459 kts 299°
2026-05-07 01:39 37.13365 102.89251 30380 ft 460 kts 299°
2026-05-07 01:40 37.16757 102.82449 30380 ft 460 kts 299°
2026-05-07 01:40 37.20146 102.75638 30379 ft 461 kts 299°
2026-05-07 01:41 37.23542 102.68801 30377 ft 463 kts 299°
2026-05-07 01:41 37.26945 102.61934 30369 ft 464 kts 299°
2026-05-07 01:42 37.30351 102.55049 30387 ft 464 kts 299°
2026-05-07 01:42 37.33717 102.48162 30378 ft 460 kts 296°
2026-05-07 01:43 37.36283 102.40846 30368 ft 456 kts 288°
2026-05-07 01:43 37.37962 102.33198 30374 ft 454 kts 282°
2026-05-07 01:44 37.39455 102.25490 30389 ft 454 kts 283°
2026-05-07 01:44 37.40992 102.17780 30374 ft 455 kts 283°
2026-05-07 01:45 37.42520 102.10031 30386 ft 457 kts 283°
2026-05-07 01:45 37.44043 102.02262 30356 ft 458 kts 283°
2026-05-07 01:46 37.45549 101.94467 30377 ft 459 kts 283°
2026-05-07 01:46 37.47051 101.86652 30366 ft 459 kts 283°
2026-05-07 01:47 37.48545 101.78851 30372 ft 459 kts 283°
2026-05-07 01:47 37.50117 101.71060 30351 ft 458 kts 287°
2026-05-07 01:48 37.52543 101.63634 30361 ft 460 kts 296°
2026-05-07 01:48 37.55654 101.56583 30339 ft 460 kts 296°
2026-05-07 01:49 37.58673 101.49474 30351 ft 460 kts 296°
2026-05-07 01:49 37.61675 101.42356 30339 ft 461 kts 296°
2026-05-07 01:50 37.64697 101.35213 30357 ft 461 kts 296°
2026-05-07 01:50 37.67715 101.28075 30334 ft 461 kts 296°
2026-05-07 01:51 37.70729 101.20930 30329 ft 460 kts 296°
2026-05-07 01:51 37.73735 101.13791 30335 ft 460 kts 296°
2026-05-07 01:52 37.76727 101.06656 30327 ft 460 kts 296°
2026-05-07 01:52 37.79717 100.99519 30329 ft 459 kts 296°
2026-05-07 01:53 37.82707 100.92365 30324 ft 460 kts 296°
2026-05-07 01:53 37.85798 100.85272 30327 ft 461 kts 297°
2026-05-07 01:54 37.88972 100.78235 30321 ft 461 kts 297°
2026-05-07 01:54 37.92153 100.71152 30305 ft 462 kts 297°
2026-05-07 01:55 37.95315 100.64058 30317 ft 462 kts 297°
2026-05-07 01:55 37.98459 100.56967 30310 ft 462 kts 297°
2026-05-07 01:56 38.01602 100.49858 30308 ft 462 kts 296°
2026-05-07 01:56 38.04738 100.42750 30311 ft 462 kts 296°
2026-05-07 01:57 38.07873 100.35629 30324 ft 462 kts 296°
2026-05-07 01:57 38.11005 100.28502 30311 ft 463 kts 296°
2026-05-07 01:58 38.14138 100.21354 30333 ft 462 kts 296°
2026-05-07 01:58 38.17264 100.14205 30315 ft 463 kts 296°
2026-05-07 01:59 38.20391 100.07043 30329 ft 464 kts 296°
2026-05-07 01:59 38.23517 99.99856 30317 ft 465 kts 296°
2026-05-07 02:00 38.26651 99.92653 30314 ft 466 kts 296°
2026-05-07 02:00 38.29780 99.85428 30314 ft 465 kts 296°
2026-05-07 02:01 38.32902 99.78208 30319 ft 465 kts 296°
2026-05-07 02:01 38.36016 99.70988 30318 ft 465 kts 296°
2026-05-07 02:02 38.39128 99.63762 30316 ft 465 kts 296°
2026-05-07 02:02 38.42231 99.56539 30330 ft 465 kts 296°
2026-05-07 02:03 38.45336 99.49293 30332 ft 465 kts 296°
2026-05-07 02:03 38.48432 99.42054 30316 ft 465 kts 296°
2026-05-07 02:04 38.51531 99.34786 30309 ft 467 kts 296°
2026-05-07 02:04 38.54635 99.27485 30320 ft 468 kts 296°
2026-05-07 02:05 38.57730 99.20171 30318 ft 468 kts 296°
2026-05-07 02:05 38.60837 99.12879 30306 ft 468 kts 296°
2026-05-07 02:06 38.63935 99.05551 30312 ft 468 kts 296°
2026-05-07 02:06 38.67024 98.98214 30318 ft 468 kts 296°
2026-05-07 02:07 38.70109 98.90878 30320 ft 468 kts 296°
2026-05-07 02:07 38.74737 98.79840 30318 ft 469 kts 296°
2026-05-07 02:08 38.77814 98.72482 30323 ft 469 kts 296°
2026-05-07 02:08 38.80886 98.65116 30336 ft 469 kts 295°
2026-05-07 02:09 38.83965 98.57720 30312 ft 469 kts 295°
2026-05-07 02:09 38.87032 98.50335 30319 ft 469 kts 295°
2026-05-07 02:10 38.90092 98.42946 30310 ft 469 kts 295°
2026-05-07 02:10 38.93148 98.35552 30310 ft 469 kts 295°
2026-05-07 02:11 38.96192 98.28167 30311 ft 469 kts 295°
2026-05-07 02:11 38.99240 98.20753 30320 ft 470 kts 295°
2026-05-07 02:12 39.02286 98.13328 30313 ft 470 kts 295°
2026-05-07 02:12 39.05338 98.05875 30311 ft 471 kts 295°
2026-05-07 02:13 39.08384 97.98414 30331 ft 471 kts 295°
2026-05-07 02:13 39.11433 97.90924 30312 ft 471 kts 295°
2026-05-07 02:14 39.14469 97.83450 30302 ft 471 kts 295°
2026-05-07 02:14 39.17502 97.75968 30305 ft 472 kts 295°
2026-05-07 02:15 39.20540 97.68454 30302 ft 473 kts 295°
2026-05-07 02:15 39.23575 97.60932 30306 ft 473 kts 295°
2026-05-07 02:16 39.26619 97.53407 30284 ft 473 kts 295°
2026-05-07 02:16 39.29661 97.45875 30297 ft 473 kts 295°
2026-05-07 02:17 39.32698 97.38336 30289 ft 473 kts 294°
2026-05-07 02:17 39.35241 97.32002 30307 ft 474 kts 294°
2026-05-07 02:18 39.38267 97.24454 30285 ft 472 kts 294°
2026-05-07 02:18 39.41282 97.16905 30276 ft 471 kts 294°
2026-05-07 02:19 39.44280 97.09388 30264 ft 470 kts 294°
2026-05-07 02:19 39.47267 97.01882 30262 ft 469 kts 294°
2026-05-07 02:20 39.50286 96.94367 30259 ft 470 kts 294°
2026-05-07 02:20 39.53301 96.86863 30245 ft 470 kts 294°
2026-05-07 02:21 39.56311 96.79347 30240 ft 470 kts 294°
2026-05-07 02:21 39.59312 96.71824 30236 ft 471 kts 294°
2026-05-07 02:22 39.62322 96.64262 30262 ft 471 kts 294°
2026-05-07 02:22 39.65315 96.56703 30244 ft 471 kts 294°
2026-05-07 02:23 39.68289 96.49139 30216 ft 470 kts 294°
2026-05-07 02:23 39.71250 96.41585 30223 ft 469 kts 294°
2026-05-07 02:24 39.74209 96.34021 30214 ft 469 kts 294°
2026-05-07 02:24 39.77162 96.26458 30215 ft 469 kts 294°
2026-05-07 02:25 39.80105 96.18900 30190 ft 469 kts 294°
2026-05-07 02:25 39.83051 96.11313 30185 ft 470 kts 294°
2026-05-07 02:26 39.85992 96.03724 30176 ft 470 kts 293°
2026-05-07 02:26 39.88927 95.96129 30155 ft 470 kts 293°
2026-05-07 02:27 39.91860 95.88518 30150 ft 469 kts 293°
2026-05-07 02:27 39.94782 95.80918 30149 ft 469 kts 293°
2026-05-07 02:28 39.97698 95.73314 30146 ft 469 kts 293°
2026-05-07 02:28 40.00610 95.65703 30140 ft 470 kts 293°
2026-05-07 02:29 40.03522 95.58069 30136 ft 471 kts 293°
2026-05-07 02:29 40.06435 95.50414 30136 ft 471 kts 293°
2026-05-07 02:30 40.09347 95.42742 30121 ft 472 kts 293°
2026-05-07 02:30 40.12260 95.35048 30132 ft 472 kts 293°
2026-05-07 02:31 40.15165 95.27355 30125 ft 473 kts 293°
2026-05-07 02:31 40.18071 95.19637 30125 ft 473 kts 293°
2026-05-07 02:32 40.20975 95.11924 30112 ft 474 kts 293°
2026-05-07 02:32 40.23931 95.04205 30115 ft 474 kts 293°
2026-05-07 02:33 40.26883 94.96486 30112 ft 474 kts 293°
2026-05-07 02:33 40.29850 94.88776 30113 ft 475 kts 295°
2026-05-07 02:34 40.33596 94.81593 30115 ft 481 kts 306°
2026-05-07 02:34 40.37844 94.74797 30142 ft 481 kts 304°
2026-05-07 02:35 40.42001 94.67917 30119 ft 481 kts 304°
2026-05-07 02:35 40.46149 94.61013 30112 ft 481 kts 304°
2026-05-07 02:36 40.50291 94.54120 30113 ft 481 kts 304°
2026-05-07 02:36 40.54434 94.47220 30122 ft 481 kts 304°
2026-05-07 02:37 40.58580 94.40301 30120 ft 482 kts 304°
2026-05-07 02:37 40.62734 94.33355 30135 ft 482 kts 304°
2026-05-07 02:38 40.66882 94.26401 30123 ft 484 kts 304°
2026-05-07 02:38 40.71047 94.19401 30284 ft 486 kts 304°
2026-05-07 02:39 40.73132 94.15893 30506 ft 486 kts 304°
2026-05-07 02:39 40.75213 94.12388 30804 ft 484 kts 304°
2026-05-07 02:39 40.77276 94.08909 31095 ft 482 kts 304°
2026-05-07 02:39 40.79340 94.05425 31383 ft 480 kts 304°
2026-05-07 02:40 40.81392 94.01955 31626 ft 479 kts 304°
2026-05-07 02:40 40.83437 93.98492 31841 ft 479 kts 304°
2026-05-07 02:40 40.85481 93.95027 32051 ft 478 kts 304°
2026-05-07 02:40 40.87556 93.91505 32077 ft 480 kts 305°
2026-05-07 02:41 40.91665 93.84524 32118 ft 484 kts 305°
2026-05-07 02:41 40.95977 93.77629 32126 ft 487 kts 308°
2026-05-07 02:42 41.00437 93.70861 32131 ft 489 kts 308°
2026-05-07 02:42 41.04890 93.64050 32128 ft 490 kts 308°
2026-05-07 02:43 41.09287 93.57231 32130 ft 489 kts 307°
2026-05-07 02:43 41.13723 93.50308 32131 ft 488 kts 307°
2026-05-07 02:44 41.18073 93.43501 32125 ft 487 kts 307°
2026-05-07 02:44 41.22450 93.36639 32123 ft 486 kts 307°
2026-05-07 02:45 41.26806 93.29798 32141 ft 485 kts 307°
2026-05-07 02:45 41.31152 93.22956 32132 ft 485 kts 308°
2026-05-07 02:46 41.35520 93.16063 32145 ft 488 kts 308°
2026-05-07 02:46 41.39908 93.09124 32144 ft 492 kts 308°
2026-05-07 02:47 41.44322 93.02127 32126 ft 495 kts 309°
2026-05-07 02:47 41.48756 92.95083 32124 ft 498 kts 309°
2026-05-07 02:48 41.53214 92.87984 32125 ft 500 kts 310°
2026-05-07 02:48 41.57688 92.80844 32140 ft 502 kts 310°
2026-05-07 02:49 41.62183 92.73652 32138 ft 505 kts 310°
2026-05-07 02:49 41.66688 92.66426 32112 ft 507 kts 311°
2026-05-07 02:50 41.71202 92.59169 32117 ft 508 kts 311°
2026-05-07 02:50 41.75709 92.51906 32121 ft 507 kts 311°
2026-05-07 02:51 41.80214 92.44628 32105 ft 506 kts 311°
2026-05-07 02:51 41.84690 92.37378 32100 ft 504 kts 311°
2026-05-07 02:52 41.89145 92.30145 32123 ft 502 kts 311°
2026-05-07 02:52 41.93587 92.22915 32115 ft 501 kts 311°
2026-05-07 02:53 41.98019 92.15686 32116 ft 500 kts 311°
2026-05-07 02:53 42.02434 92.08467 32106 ft 500 kts 311°
2026-05-07 02:54 42.06839 92.01247 32107 ft 499 kts 311°
2026-05-07 02:54 42.10501 91.95230 32100 ft 500 kts 311°
2026-05-07 02:55 42.14900 91.87987 32102 ft 500 kts 310°
2026-05-07 02:55 42.19295 91.80733 32103 ft 500 kts 310°
2026-05-07 02:56 42.23739 91.73531 32103 ft 498 kts 314°
2026-05-07 02:56 42.28748 91.67111 32105 ft 496 kts 319°
2026-05-07 02:57 42.33824 91.60768 32095 ft 496 kts 318°
2026-05-07 02:57 42.38840 91.54380 32098 ft 496 kts 317°
2026-05-07 02:58 42.43877 91.47906 32097 ft 495 kts 317°
2026-05-07 02:58 42.48855 91.41492 32092 ft 493 kts 317°
2026-05-07 02:59 42.53823 91.35081 32087 ft 492 kts 317°
2026-05-07 02:59 42.58774 91.28680 32089 ft 492 kts 317°
2026-05-07 03:00 42.63716 91.22275 32089 ft 491 kts 317°
2026-05-07 03:00 42.68620 91.15906 32093 ft 491 kts 317°
2026-05-07 03:01 42.73562 91.09471 32089 ft 491 kts 317°
2026-05-07 03:01 42.78491 91.03037 32090 ft 492 kts 317°
2026-05-07 03:02 42.83433 90.96572 32093 ft 492 kts 317°
2026-05-07 03:02 42.88269 90.89985 32092 ft 493 kts 311°
2026-05-07 03:03 42.92213 90.82351 32098 ft 494 kts 301°
2026-05-07 03:03 42.95758 90.74312 32101 ft 494 kts 302°
2026-05-07 03:04 42.99370 90.66341 32105 ft 493 kts 302°
2026-05-07 03:04 43.02983 90.58377 32130 ft 493 kts 302°
2026-05-07 03:05 43.06586 90.50399 32120 ft 493 kts 302°
2026-05-07 03:05 43.10175 90.42421 32122 ft 492 kts 302°
2026-05-07 03:06 43.13756 90.34439 32122 ft 491 kts 302°
2026-05-07 03:06 43.17324 90.26463 32129 ft 491 kts 302°
2026-05-07 03:07 43.20884 90.18485 32155 ft 490 kts 302°
2026-05-07 03:07 43.24434 90.10523 32156 ft 490 kts 302°
2026-05-07 03:08 43.27995 90.02534 32175 ft 490 kts 302°
2026-05-07 03:08 43.31548 89.94532 32176 ft 491 kts 302°
2026-05-07 03:09 43.35098 89.86510 32191 ft 491 kts 302°
2026-05-07 03:09 43.38645 89.78479 32190 ft 491 kts 302°
2026-05-07 03:10 43.42190 89.70429 32186 ft 491 kts 302°
2026-05-07 03:10 43.45720 89.62387 32196 ft 491 kts 301°
2026-05-07 03:11 43.49241 89.54346 32190 ft 490 kts 302°
2026-05-07 03:11 43.52745 89.46319 32187 ft 489 kts 302°
2026-05-07 03:12 43.56250 89.38275 32198 ft 488 kts 301°
2026-05-07 03:12 43.59801 89.30276 32197 ft 488 kts 302°
2026-05-07 03:13 43.63370 89.22300 32205 ft 489 kts 302°
2026-05-07 03:13 43.66923 89.14313 32185 ft 489 kts 302°
2026-05-07 03:14 43.70471 89.06295 32203 ft 488 kts 301°
2026-05-07 03:15 43.75767 88.94277 32184 ft 487 kts 301°
2026-05-07 03:15 43.79288 88.86265 32197 ft 487 kts 301°
2026-05-07 03:16 43.82828 88.78190 32176 ft 487 kts 301°
2026-05-07 03:16 43.86332 88.70170 32193 ft 487 kts 301°
2026-05-07 03:17 43.89807 88.62192 32198 ft 487 kts 301°
2026-05-07 03:17 43.93322 88.54104 32185 ft 486 kts 301°
2026-05-07 03:18 43.96789 88.46102 32194 ft 486 kts 301°
2026-05-07 03:18 44.00271 88.38048 32170 ft 487 kts 301°
2026-05-07 03:19 44.03749 88.29971 32164 ft 487 kts 301°
2026-05-07 03:19 44.07224 88.21882 32147 ft 487 kts 301°
2026-05-07 03:20 44.10692 88.13790 32141 ft 487 kts 301°
2026-05-07 03:20 44.14156 88.05683 32115 ft 487 kts 301°
2026-05-07 03:21 44.17644 87.97591 32115 ft 487 kts 303°
2026-05-07 03:21 44.21694 87.90016 32111 ft 487 kts 308°
2026-05-07 03:22 44.25835 87.82543 32098 ft 487 kts 307°
2026-05-07 03:22 44.29903 87.75011 32104 ft 487 kts 307°
2026-05-07 03:23 44.33979 87.67430 32092 ft 487 kts 307°
2026-05-07 03:23 44.38101 87.59920 32101 ft 487 kts 308°
2026-05-07 03:24 44.42248 87.52410 32101 ft 487 kts 307°
2026-05-07 03:24 44.46369 87.44898 32094 ft 487 kts 307°
2026-05-07 03:25 44.50480 87.37368 32093 ft 486 kts 307°
2026-05-07 03:25 44.54585 87.29836 32095 ft 486 kts 307°
2026-05-07 03:26 44.58774 87.22396 32106 ft 486 kts 309°
2026-05-07 03:26 44.63074 87.15088 32093 ft 486 kts 309°
2026-05-07 03:27 44.67348 87.07733 32092 ft 486 kts 308°
2026-05-07 03:27 44.71588 87.00369 32092 ft 485 kts 308°
2026-05-07 03:28 44.75841 86.92982 32082 ft 485 kts 308°
2026-05-07 03:28 44.80064 86.85644 32096 ft 485 kts 308°
2026-05-07 03:29 44.84298 86.78257 32084 ft 485 kts 308°
2026-05-07 03:29 44.88494 86.70808 32085 ft 485 kts 308°
2026-05-07 03:30 44.92690 86.63300 32092 ft 484 kts 307°
2026-05-07 03:30 44.96863 86.55824 32079 ft 484 kts 307°
2026-05-07 03:31 45.00997 86.48408 32085 ft 484 kts 308°
2026-05-07 03:31 45.05162 86.40922 32083 ft 484 kts 307°
2026-05-07 03:32 45.09310 86.33446 32081 ft 484 kts 307°
2026-05-07 03:32 45.13462 86.25942 32079 ft 484 kts 307°
2026-05-07 03:33 45.17604 86.18436 32077 ft 484 kts 307°
2026-05-07 03:33 45.21740 86.10918 32071 ft 484 kts 307°
2026-05-07 03:34 45.25873 86.03392 32075 ft 484 kts 307°
2026-05-07 03:34 45.30012 85.95833 32077 ft 484 kts 307°
2026-05-07 03:35 45.33439 85.89557 32084 ft 484 kts 307°
2026-05-07 03:35 45.37561 85.81990 32074 ft 483 kts 307°
2026-05-07 03:36 45.41664 85.74439 32074 ft 483 kts 307°
2026-05-07 03:36 45.45763 85.66875 32073 ft 482 kts 307°
2026-05-07 03:37 45.49855 85.59303 32073 ft 482 kts 307°
2026-05-07 03:37 45.53934 85.51735 32068 ft 481 kts 307°
2026-05-07 03:38 45.58007 85.44160 32072 ft 481 kts 307°
2026-05-07 03:38 45.62071 85.36578 32070 ft 480 kts 307°
2026-05-07 03:39 45.66119 85.29005 32057 ft 480 kts 307°
2026-05-07 03:39 45.70178 85.21397 32080 ft 480 kts 307°
2026-05-07 03:40 45.74236 85.13812 32065 ft 480 kts 307°
2026-05-07 03:40 45.78297 85.06224 32074 ft 480 kts 307°
2026-05-07 03:41 45.82348 84.98628 32072 ft 480 kts 307°
2026-05-07 03:41 45.86391 84.91020 32081 ft 480 kts 308°
2026-05-07 03:42 45.90428 84.83403 32071 ft 479 kts 308°
2026-05-07 03:42 45.94461 84.75776 32076 ft 479 kts 308°
2026-05-07 03:43 45.98489 84.68134 32079 ft 479 kts 308°
2026-05-07 03:43 46.02513 84.60478 32080 ft 479 kts 308°
2026-05-07 03:44 46.06524 84.52829 32088 ft 479 kts 308°
2026-05-07 03:44 46.10537 84.45154 32087 ft 479 kts 308°
2026-05-07 03:45 46.14545 84.37466 32086 ft 480 kts 308°
2026-05-07 03:45 46.18555 84.29754 32094 ft 481 kts 308°
2026-05-07 03:46 46.22567 84.22015 32097 ft 481 kts 308°
2026-05-07 03:46 46.26573 84.14272 32091 ft 482 kts 308°
2026-05-07 03:47 46.30569 84.06491 32077 ft 482 kts 308°
2026-05-07 03:47 46.34545 83.98704 32077 ft 482 kts 308°
2026-05-07 03:48 46.38527 83.90893 32073 ft 482 kts 308°
2026-05-07 03:48 46.42502 83.83074 32071 ft 482 kts 308°
2026-05-07 03:49 46.46483 83.75222 32066 ft 483 kts 308°
2026-05-07 03:49 46.50453 83.67370 32071 ft 482 kts 308°
2026-05-07 03:50 46.54412 83.59516 32067 ft 482 kts 308°
2026-05-07 03:50 46.58365 83.51654 32058 ft 482 kts 308°
2026-05-07 03:51 46.62301 83.43802 32076 ft 481 kts 308°
2026-05-07 03:51 46.66219 83.35904 32075 ft 481 kts 306°
2026-05-07 03:52 46.69797 83.27676 32079 ft 481 kts 304°
2026-05-07 03:52 46.73342 83.19421 32081 ft 480 kts 304°
2026-05-07 03:53 46.76894 83.11177 32075 ft 480 kts 304°
2026-05-07 03:53 46.80444 83.02933 32075 ft 479 kts 304°
2026-05-07 03:54 46.83965 82.94685 32074 ft 478 kts 302°
2026-05-07 03:54 46.86567 82.85747 32083 ft 481 kts 289°
2026-05-07 03:55 46.87869 82.76137 32091 ft 484 kts 280°
2026-05-07 03:55 46.88799 82.66402 32083 ft 484 kts 281°
2026-05-07 03:56 46.89787 82.56658 32081 ft 485 kts 281°
2026-05-07 03:56 46.90778 82.46900 32082 ft 485 kts 281°
2026-05-07 03:57 46.91758 82.37146 32083 ft 486 kts 281°
2026-05-07 03:57 46.92730 82.27362 32069 ft 486 kts 281°
2026-05-07 03:58 46.93693 82.17572 32065 ft 486 kts 281°
2026-05-07 03:58 46.94646 82.07792 32061 ft 485 kts 281°
2026-05-07 03:59 46.95592 81.98007 32065 ft 485 kts 281°
2026-05-07 03:59 46.96524 81.88235 32056 ft 485 kts 280°
2026-05-07 04:00 46.97433 81.78447 32056 ft 485 kts 280°
2026-05-07 04:00 46.98332 81.68666 32058 ft 484 kts 280°
2026-05-07 04:01 46.99223 81.58888 32060 ft 484 kts 280°
2026-05-07 04:01 47.00107 81.49119 32058 ft 484 kts 280°
2026-05-07 04:02 47.00982 81.39358 32058 ft 484 kts 280°
2026-05-07 04:02 47.01850 81.29564 32059 ft 484 kts 280°
2026-05-07 04:03 47.02708 81.19791 32057 ft 484 kts 279°
2026-05-07 04:03 47.03561 81.09985 32054 ft 484 kts 279°
2026-05-07 04:04 47.04404 81.00197 32064 ft 484 kts 279°
2026-05-07 04:04 47.05238 80.90424 32044 ft 483 kts 279°
2026-05-07 04:05 47.06064 80.80661 32051 ft 482 kts 279°
2026-05-07 04:05 47.06880 80.70909 32051 ft 481 kts 279°
2026-05-07 04:06 47.07687 80.61168 32052 ft 481 kts 279°
2026-05-07 04:06 47.08486 80.51421 32048 ft 481 kts 279°
2026-05-07 04:07 47.09278 80.41667 32048 ft 481 kts 279°
2026-05-07 04:07 47.10059 80.31929 32048 ft 481 kts 279°
2026-05-07 04:08 47.10833 80.22178 32054 ft 481 kts 279°
2026-05-07 04:08 47.11600 80.12411 32050 ft 481 kts 279°
2026-05-07 04:09 47.12357 80.02646 32047 ft 481 kts 279°
2026-05-07 04:09 47.13108 79.92885 32050 ft 480 kts 278°
2026-05-07 04:10 47.13849 79.83144 32050 ft 480 kts 278°
2026-05-07 04:10 47.14594 79.73404 32055 ft 479 kts 278°
2026-05-07 04:11 47.15330 79.63704 32039 ft 477 kts 278°
2026-05-07 04:11 47.16055 79.54030 32054 ft 476 kts 278°
2026-05-07 04:12 47.16769 79.44381 32057 ft 475 kts 278°
2026-05-07 04:12 47.17475 79.34739 32058 ft 475 kts 278°
2026-05-07 04:13 47.18058 79.26678 32057 ft 475 kts 278°
2026-05-07 04:13 47.18752 79.17009 32055 ft 475 kts 277°
2026-05-07 04:14 47.19430 79.07341 32058 ft 475 kts 277°
2026-05-07 04:14 47.20094 78.97655 32060 ft 476 kts 277°
2026-05-07 04:15 47.20752 78.87969 32061 ft 476 kts 277°
2026-05-07 04:15 47.21402 78.78287 32054 ft 476 kts 277°
2026-05-07 04:16 47.22044 78.68614 32059 ft 476 kts 277°
2026-05-07 04:16 47.22678 78.58912 32065 ft 476 kts 277°
2026-05-07 04:17 47.23304 78.49227 32066 ft 475 kts 276°
2026-05-07 04:17 47.23920 78.39564 32056 ft 474 kts 276°
2026-05-07 04:18 47.24526 78.29927 32049 ft 472 kts 276°
2026-05-07 04:18 47.25123 78.20298 32055 ft 471 kts 276°
2026-05-07 04:19 47.25711 78.10691 32050 ft 471 kts 276°
2026-05-07 04:19 47.26291 78.01084 32054 ft 471 kts 276°
2026-05-07 04:20 47.26863 77.91467 32043 ft 472 kts 275°
2026-05-07 04:20 47.27428 77.81837 32053 ft 472 kts 275°
2026-05-07 04:21 47.28261 77.67358 32054 ft 473 kts 275°
2026-05-07 04:21 47.28807 77.57708 32046 ft 473 kts 275°
2026-05-07 04:22 47.29345 77.48035 32055 ft 473 kts 275°
2026-05-07 04:22 47.29876 77.38361 32044 ft 474 kts 275°
2026-05-07 04:23 47.30397 77.28694 32046 ft 474 kts 275°
2026-05-07 04:23 47.30911 77.19021 32046 ft 473 kts 275°
2026-05-07 04:24 47.31417 77.09369 32038 ft 472 kts 274°
2026-05-07 04:24 47.32183 76.99778 32036 ft 471 kts 279°
2026-05-07 04:25 47.33191 76.90246 32038 ft 470 kts 278°
2026-05-07 04:25 47.34157 76.80704 32039 ft 470 kts 278°
2026-05-07 04:26 47.35109 76.71161 32037 ft 470 kts 278°
2026-05-07 04:26 47.36054 76.61614 32042 ft 471 kts 278°
2026-05-07 04:27 47.36995 76.52046 32037 ft 471 kts 278°
2026-05-07 04:27 47.37927 76.42490 32039 ft 471 kts 277°
2026-05-07 04:28 47.38853 76.32913 32032 ft 471 kts 277°
2026-05-07 04:28 47.39769 76.23347 32047 ft 471 kts 277°
2026-05-07 04:29 47.40676 76.13792 32039 ft 470 kts 277°
2026-05-07 04:29 47.41573 76.04254 32035 ft 468 kts 277°
2026-05-07 04:30 47.42459 75.94750 32040 ft 467 kts 277°
2026-05-07 04:30 47.43336 75.85247 32042 ft 466 kts 277°
2026-05-07 04:31 47.44204 75.75757 32042 ft 466 kts 277°
2026-05-07 04:31 47.45066 75.66256 32041 ft 467 kts 276°
2026-05-07 04:32 47.45919 75.56745 32047 ft 467 kts 276°
2026-05-07 04:32 47.46765 75.47224 32041 ft 468 kts 276°
2026-05-07 04:33 47.47607 75.37669 32039 ft 469 kts 276°
2026-05-07 04:33 47.48440 75.28116 32041 ft 469 kts 276°
2026-05-07 04:34 47.49267 75.18542 32043 ft 469 kts 275°
2026-05-07 04:34 47.50085 75.08965 32041 ft 470 kts 275°
2026-05-07 04:35 47.50896 74.99383 32037 ft 470 kts 275°
2026-05-07 04:35 47.51699 74.89801 32037 ft 470 kts 275°
2026-05-07 04:36 47.52494 74.80208 32048 ft 470 kts 275°
2026-05-07 04:36 47.53282 74.70612 32040 ft 470 kts 275°
2026-05-07 04:37 47.54061 74.61010 32044 ft 470 kts 275°
2026-05-07 04:37 47.54833 74.51406 32044 ft 470 kts 275°
2026-05-07 04:38 47.55596 74.41798 32045 ft 470 kts 275°
2026-05-07 04:38 47.56351 74.32194 32040 ft 470 kts 275°
2026-05-07 04:39 47.57100 74.22572 32054 ft 471 kts 275°
2026-05-07 04:39 47.57841 74.12934 32044 ft 471 kts 275°
2026-05-07 04:40 47.58574 74.03293 32047 ft 471 kts 274°
2026-05-07 04:40 47.59299 73.93642 32046 ft 471 kts 274°
2026-05-07 04:41 47.60017 73.83985 32041 ft 472 kts 274°
2026-05-07 04:41 47.60727 73.74317 32047 ft 472 kts 274°
2026-05-07 04:42 47.61430 73.64638 32041 ft 473 kts 274°
2026-05-07 04:42 47.62125 73.54949 32041 ft 473 kts 274°
2026-05-07 04:43 47.62812 73.45257 32036 ft 473 kts 274°
2026-05-07 04:43 47.63491 73.35553 32038 ft 473 kts 274°
2026-05-07 04:44 47.64162 73.25850 32051 ft 473 kts 275°
2026-05-07 04:44 47.64826 73.16126 32032 ft 473 kts 274°
2026-05-07 04:45 47.65481 73.06423 32032 ft 473 kts 274°
2026-05-07 04:45 47.66126 72.96729 32033 ft 472 kts 275°
2026-05-07 04:46 47.66762 72.87049 32029 ft 470 kts 275°
2026-05-07 04:46 47.67387 72.77422 32031 ft 468 kts 275°
2026-05-07 04:47 47.67997 72.67890 32027 ft 467 kts 275°
2026-05-07 04:47 47.68603 72.58304 32028 ft 466 kts 275°
2026-05-07 04:48 47.69199 72.48720 32031 ft 466 kts 275°
2026-05-07 04:48 47.69788 72.39137 32028 ft 467 kts 275°
2026-05-07 04:49 47.70371 72.29530 32026 ft 467 kts 275°
2026-05-07 04:49 47.70946 72.19925 32030 ft 467 kts 274°
2026-05-07 04:50 47.71512 72.10309 32022 ft 467 kts 274°
2026-05-07 04:50 47.72071 72.00697 32019 ft 466 kts 274°
2026-05-07 04:51 47.72619 71.91118 32020 ft 465 kts 274°
2026-05-07 04:51 47.73074 71.83090 32010 ft 465 kts 274°
2026-05-07 04:52 47.73525 71.73518 32011 ft 465 kts 272°
2026-05-07 04:52 47.73902 71.63938 32009 ft 465 kts 272°
2026-05-07 04:53 47.74280 71.54355 32011 ft 465 kts 272°
2026-05-07 04:53 47.74661 71.44772 31995 ft 465 kts 272°
2026-05-07 04:54 47.75038 71.35183 32003 ft 465 kts 272°
2026-05-07 04:54 47.75404 71.25663 31989 ft 465 kts 272°
2026-05-07 04:55 47.75766 71.16051 31999 ft 465 kts 271°
2026-05-07 04:55 47.76119 71.06436 31992 ft 466 kts 271°
2026-05-07 04:56 47.76465 70.96827 31987 ft 466 kts 271°
2026-05-07 04:56 47.76802 70.87218 31992 ft 466 kts 271°
2026-05-07 04:57 47.77131 70.77615 31987 ft 466 kts 271°
2026-05-07 04:57 47.77454 70.67993 31986 ft 466 kts 271°
2026-05-07 04:58 47.77766 70.58374 31983 ft 466 kts 271°
2026-05-07 04:58 47.78071 70.48756 31980 ft 466 kts 271°
2026-05-07 04:59 47.78368 70.39123 31983 ft 466 kts 270°
2026-05-07 04:59 47.78658 70.29499 31980 ft 466 kts 270°
2026-05-07 05:00 47.78941 70.19870 31981 ft 466 kts 270°
2026-05-07 05:00 47.79215 70.10234 31990 ft 466 kts 270°
2026-05-07 05:01 47.79481 70.00606 31979 ft 466 kts 270°
2026-05-07 05:01 47.79738 69.90980 31976 ft 466 kts 270°
2026-05-07 05:02 47.79987 69.81361 31979 ft 465 kts 270°
2026-05-07 05:02 47.80228 69.71762 31989 ft 465 kts 269°
2026-05-07 05:03 47.80462 69.62129 31979 ft 465 kts 269°
2026-05-07 05:03 47.80687 69.52513 31978 ft 465 kts 269°
2026-05-07 05:04 47.80904 69.42910 31981 ft 465 kts 269°
2026-05-07 05:04 47.81112 69.33306 31982 ft 465 kts 269°
2026-05-07 05:05 47.81314 69.23678 31990 ft 465 kts 269°
2026-05-07 05:05 47.81507 69.14055 31989 ft 465 kts 269°
2026-05-07 05:06 47.81692 69.04443 32002 ft 465 kts 269°
2026-05-07 05:06 47.81870 68.94826 31990 ft 464 kts 269°
2026-05-07 05:07 47.82039 68.85221 32003 ft 464 kts 268°
2026-05-07 05:07 47.81634 68.75705 32001 ft 459 kts 258°
2026-05-07 05:08 47.80679 68.66313 31997 ft 460 kts 260°
2026-05-07 05:08 47.79821 68.56878 32014 ft 460 kts 260°
2026-05-07 05:09 47.78961 68.47449 32012 ft 460 kts 260°
2026-05-07 05:09 47.78083 68.38019 32028 ft 460 kts 259°
2026-05-07 05:10 47.77193 68.28598 32015 ft 460 kts 259°
2026-05-07 05:10 47.76296 68.19193 32020 ft 459 kts 259°
2026-05-07 05:11 47.75393 68.09800 32023 ft 459 kts 259°
2026-05-07 05:11 47.74482 68.00399 32017 ft 459 kts 259°
2026-05-07 05:12 47.73564 67.91016 32020 ft 459 kts 259°
2026-05-07 05:12 47.72641 67.81647 32019 ft 459 kts 259°
2026-05-07 05:13 47.71569 67.72326 32021 ft 458 kts 255°
2026-05-07 05:13 47.70166 67.63103 32027 ft 458 kts 255°
2026-05-07 05:14 47.68791 67.53863 32028 ft 458 kts 255°
2026-05-07 05:14 47.67415 67.44621 32027 ft 458 kts 255°
2026-05-07 05:15 47.66032 67.35399 32016 ft 459 kts 255°
2026-05-07 05:15 47.64647 67.26218 32010 ft 458 kts 255°
2026-05-07 05:16 47.63249 67.17012 32016 ft 458 kts 255°
2026-05-07 05:16 47.61844 67.07816 32010 ft 458 kts 255°
2026-05-07 05:17 47.60430 66.98608 32012 ft 458 kts 255°
2026-05-07 05:17 47.59012 66.89423 32004 ft 458 kts 255°
2026-05-07 05:18 47.57586 66.80240 32008 ft 458 kts 255°
2026-05-07 05:18 47.56149 66.71039 32018 ft 459 kts 255°
2026-05-07 05:19 47.54647 66.61837 32001 ft 459 kts 254°
2026-05-07 05:19 47.53119 66.52656 31995 ft 460 kts 254°
2026-05-07 05:20 47.51591 66.43474 31994 ft 460 kts 254°
2026-05-07 05:20 47.50059 66.34292 31995 ft 460 kts 254°
2026-05-07 05:21 47.47751 66.20536 31975 ft 459 kts 254°
2026-05-07 05:22 47.46204 66.11382 31963 ft 459 kts 254°
2026-05-07 05:22 47.44652 66.02240 31973 ft 459 kts 254°
2026-05-07 05:23 47.43094 65.93112 31966 ft 458 kts 254°
2026-05-07 05:23 47.41532 65.84006 31953 ft 458 kts 254°
2026-05-07 05:24 47.40023 65.74992 31954 ft 458 kts 255°
2026-05-07 05:24 47.38512 65.65848 31933 ft 458 kts 255°
2026-05-07 05:25 47.36993 65.56724 31961 ft 458 kts 255°
2026-05-07 05:25 47.35465 65.47625 31935 ft 457 kts 254°
2026-05-07 05:26 47.33926 65.38518 31935 ft 457 kts 254°
2026-05-07 05:26 47.32385 65.29445 31933 ft 457 kts 254°
2026-05-07 05:27 47.30837 65.20380 31946 ft 456 kts 254°
2026-05-07 05:27 47.29280 65.11304 31924 ft 455 kts 254°
2026-05-07 05:28 47.27724 65.02275 31926 ft 455 kts 254°
2026-05-07 05:28 47.26165 64.93258 31928 ft 454 kts 254°
2026-05-07 05:29 47.24610 64.84270 31922 ft 454 kts 254°
2026-05-07 05:29 47.23045 64.75264 31927 ft 453 kts 254°
2026-05-07 05:30 47.21478 64.66295 31927 ft 453 kts 254°
2026-05-07 05:30 47.19904 64.57328 31923 ft 452 kts 253°
2026-05-07 05:31 47.18328 64.48401 31927 ft 452 kts 253°
2026-05-07 05:31 47.16740 64.39454 31927 ft 452 kts 253°
2026-05-07 05:32 47.15419 64.32032 31925 ft 452 kts 253°
2026-05-07 05:32 47.13553 64.21602 31923 ft 451 kts 253°
2026-05-07 05:33 47.12221 64.14190 31918 ft 451 kts 253°
2026-05-07 05:33 47.10617 64.05304 31918 ft 451 kts 253°
2026-05-07 05:34 47.09000 63.96392 31914 ft 451 kts 253°
2026-05-07 05:34 47.07379 63.87505 31916 ft 451 kts 253°
2026-05-07 05:35 47.05751 63.78615 31909 ft 451 kts 253°
2026-05-07 05:35 47.04115 63.69728 31912 ft 451 kts 253°
2026-05-07 05:36 47.02475 63.60860 31913 ft 451 kts 253°
2026-05-07 05:36 47.00825 63.51984 31912 ft 451 kts 252°
2026-05-07 05:37 46.99166 63.43103 31912 ft 452 kts 252°
2026-05-07 05:37 46.97505 63.34247 31902 ft 452 kts 252°
2026-05-07 05:38 46.95832 63.25375 31909 ft 452 kts 252°
2026-05-07 05:38 46.94157 63.16528 31901 ft 452 kts 252°
2026-05-07 05:39 46.92459 63.07606 31904 ft 452 kts 252°
2026-05-07 05:39 46.90768 62.98762 31898 ft 451 kts 252°
2026-05-07 05:40 46.89071 62.89927 31920 ft 451 kts 252°
2026-05-07 05:40 46.87365 62.81086 31907 ft 452 kts 252°
2026-05-07 05:41 46.85654 62.72253 31897 ft 452 kts 252°
2026-05-07 05:41 46.83942 62.63455 31898 ft 451 kts 252°
2026-05-07 05:42 46.82234 62.54724 31899 ft 451 kts 251°
2026-05-07 05:42 46.80501 62.45927 31907 ft 451 kts 251°
2026-05-07 05:43 46.78761 62.37124 31899 ft 452 kts 251°
2026-05-07 05:43 46.77015 62.28321 31899 ft 452 kts 251°
2026-05-07 05:44 46.75274 62.19581 31895 ft 452 kts 251°
2026-05-07 05:44 46.73502 62.10725 31908 ft 452 kts 251°
2026-05-07 05:45 46.71737 62.01951 31898 ft 452 kts 250°
2026-05-07 05:45 46.69962 61.93164 31900 ft 452 kts 250°
2026-05-07 05:46 46.68192 61.84436 31965 ft 454 kts 250°
2026-05-07 05:46 46.67294 61.80026 32208 ft 453 kts 250°
2026-05-07 05:46 46.66402 61.75645 32539 ft 451 kts 250°
2026-05-07 05:46 46.65510 61.71279 32873 ft 449 kts 250°
2026-05-07 05:47 46.64621 61.66937 33181 ft 447 kts 250°
2026-05-07 05:47 46.63734 61.62619 33459 ft 445 kts 250°
2026-05-07 05:47 46.62844 61.58293 33704 ft 445 kts 250°
2026-05-07 05:47 46.61944 61.53927 33821 ft 445 kts 250°
2026-05-07 05:48 46.61051 61.49610 33867 ft 446 kts 250°
2026-05-07 05:48 46.59272 61.41028 33889 ft 445 kts 250°
2026-05-07 05:49 46.57473 61.32384 33902 ft 443 kts 250°
2026-05-07 05:49 46.55685 61.23832 33894 ft 442 kts 250°
2026-05-07 05:50 46.53904 61.15351 33897 ft 441 kts 250°
2026-05-07 05:50 46.52107 61.06830 33898 ft 442 kts 250°
2026-05-07 05:51 46.50300 60.98297 33912 ft 442 kts 250°
2026-05-07 05:51 46.48487 60.89772 33901 ft 443 kts 250°
2026-05-07 05:52 46.46665 60.81237 33896 ft 443 kts 250°
2026-05-07 05:52 46.44834 60.72693 33899 ft 443 kts 250°
2026-05-07 05:53 46.43000 60.64174 33900 ft 442 kts 249°
2026-05-07 05:53 46.41162 60.55666 33903 ft 442 kts 249°
2026-05-07 05:54 46.39319 60.47178 33897 ft 442 kts 249°
2026-05-07 05:54 46.37470 60.38691 33899 ft 441 kts 249°
2026-05-07 05:55 46.35618 60.30228 33903 ft 441 kts 249°
2026-05-07 05:55 46.33758 60.21763 33905 ft 441 kts 249°
2026-05-07 05:56 46.31894 60.13312 33906 ft 441 kts 249°
2026-05-07 05:56 46.30024 60.04866 33907 ft 441 kts 249°
2026-05-07 05:57 46.28147 59.96423 33910 ft 441 kts 249°
2026-05-07 05:57 46.26265 59.87990 33923 ft 441 kts 249°
2026-05-07 05:58 46.24377 59.79560 33916 ft 441 kts 249°
2026-05-07 05:58 46.22483 59.71139 33907 ft 441 kts 249°
2026-05-07 05:59 46.20571 59.62741 33910 ft 440 kts 249°
2026-05-07 05:59 46.18651 59.54357 33912 ft 440 kts 248°
2026-05-07 06:00 46.16728 59.45983 33914 ft 440 kts 248°
2026-05-07 06:00 46.14802 59.37623 33922 ft 439 kts 248°
2026-05-07 06:01 46.12869 59.29263 33929 ft 440 kts 248°
2026-05-07 06:01 46.10928 59.20897 33926 ft 440 kts 248°
2026-05-07 06:02 46.08982 59.12541 33930 ft 440 kts 248°
2026-05-07 06:02 46.07029 59.04192 33925 ft 440 kts 248°
2026-05-07 06:03 46.05074 58.95860 33933 ft 439 kts 248°
2026-05-07 06:03 46.03115 58.87548 33926 ft 439 kts 248°
2026-05-07 06:04 46.01149 58.79235 33948 ft 439 kts 248°
2026-05-07 06:04 45.99176 58.70925 33940 ft 438 kts 248°
2026-05-07 06:05 45.97201 58.62637 33927 ft 438 kts 248°
2026-05-07 06:05 45.95219 58.54354 33936 ft 437 kts 248°
2026-05-07 06:06 45.93235 58.46090 33941 ft 437 kts 247°
2026-05-07 06:06 45.91247 58.37842 33944 ft 438 kts 247°
2026-05-07 06:07 45.89249 58.29581 33950 ft 437 kts 247°
2026-05-07 06:07 45.87248 58.21341 33949 ft 437 kts 247°
2026-05-07 06:08 45.85242 58.13107 33947 ft 437 kts 247°
2026-05-07 06:08 45.83232 58.04886 33958 ft 437 kts 247°
2026-05-07 06:09 45.81228 57.96721 33953 ft 437 kts 247°
2026-05-07 06:09 45.79206 57.88514 33955 ft 437 kts 247°
2026-05-07 06:10 45.77178 57.80309 33951 ft 437 kts 247°
2026-05-07 06:10 45.75491 57.73499 33956 ft 437 kts 247°
2026-05-07 06:11 45.73452 57.65306 33971 ft 437 kts 247°
2026-05-07 06:11 45.71401 57.57097 33966 ft 438 kts 246°
2026-05-07 06:12 45.69345 57.48892 33966 ft 438 kts 246°
2026-05-07 06:12 45.67285 57.40698 33968 ft 438 kts 246°
2026-05-07 06:13 45.65218 57.32500 33963 ft 439 kts 246°
2026-05-07 06:13 45.63143 57.24300 33964 ft 439 kts 246°
2026-05-07 06:14 45.61061 57.16105 33985 ft 438 kts 246°
2026-05-07 06:14 45.58977 57.07926 33968 ft 438 kts 246°
2026-05-07 06:15 45.56887 56.99754 33982 ft 439 kts 246°
2026-05-07 06:15 45.54787 56.91576 33979 ft 439 kts 246°
2026-05-07 06:16 45.52682 56.83406 33977 ft 439 kts 246°
2026-05-07 06:16 45.50575 56.75254 33976 ft 439 kts 246°
2026-05-07 06:17 45.48458 56.67095 33980 ft 439 kts 246°
2026-05-07 06:17 45.46334 56.58933 33983 ft 439 kts 246°
2026-05-07 06:18 45.44205 56.50783 33976 ft 439 kts 246°
2026-05-07 06:18 45.42070 56.42639 33981 ft 439 kts 246°
2026-05-07 06:19 45.39930 56.34506 33980 ft 439 kts 246°
2026-05-07 06:19 45.37782 56.26367 33983 ft 439 kts 246°
2026-05-07 06:20 45.35630 56.18241 33979 ft 439 kts 246°
2026-05-07 06:20 45.33468 56.10108 33977 ft 439 kts 246°
2026-05-07 06:21 45.31305 56.01994 33981 ft 439 kts 246°
2026-05-07 06:21 45.29135 55.93886 33993 ft 440 kts 246°
2026-05-07 06:22 45.26953 55.85760 33986 ft 441 kts 246°
2026-05-07 06:22 45.23658 55.73542 33984 ft 443 kts 246°
2026-05-07 06:23 45.21455 55.65405 33984 ft 443 kts 246°
2026-05-07 06:23 45.19231 55.57221 33989 ft 444 kts 246°
2026-05-07 06:24 45.17003 55.49047 33985 ft 445 kts 246°
2026-05-07 06:24 45.14772 55.40888 33988 ft 445 kts 246°
2026-05-07 06:25 45.12529 55.32713 33988 ft 445 kts 246°
2026-05-07 06:25 45.10267 55.24563 33984 ft 444 kts 244°
2026-05-07 06:26 45.07086 55.17134 33991 ft 441 kts 231°
2026-05-07 06:26 45.02944 55.10770 33989 ft 441 kts 222°
2026-05-07 06:27 44.98391 55.05005 33965 ft 441 kts 223°
2026-05-07 06:27 44.93873 54.99165 33984 ft 440 kts 223°
2026-05-07 06:28 44.89355 54.93319 33991 ft 440 kts 223°
2026-05-07 06:28 44.84839 54.87495 33992 ft 440 kts 223°
2026-05-07 06:29 44.80310 54.81669 34007 ft 441 kts 223°
2026-05-07 06:29 44.75782 54.75857 33997 ft 441 kts 223°
2026-05-07 06:30 44.71234 54.70031 33994 ft 442 kts 223°
2026-05-07 06:30 44.66776 54.64088 33998 ft 442 kts 227°
2026-05-07 06:31 44.63010 54.57262 34005 ft 443 kts 236°
2026-05-07 06:31 44.59532 54.50118 34003 ft 444 kts 234°
2026-05-07 06:32 44.55978 54.43037 34000 ft 444 kts 234°
2026-05-07 06:32 44.52413 54.35941 34005 ft 445 kts 234°
2026-05-07 06:33 44.48855 54.28854 34011 ft 445 kts 234°
2026-05-07 06:33 44.45318 54.21814 34005 ft 445 kts 234°
2026-05-07 06:34 44.41757 54.14742 34013 ft 444 kts 234°
2026-05-07 06:34 44.38175 54.07646 34017 ft 444 kts 234°
2026-05-07 06:35 44.34606 54.00596 34023 ft 444 kts 234°
2026-05-07 06:35 44.31038 53.93562 34017 ft 444 kts 234°
2026-05-07 06:36 44.27470 53.86548 34019 ft 443 kts 234°
2026-05-07 06:36 44.23891 53.79528 34018 ft 443 kts 234°
2026-05-07 06:37 44.20314 53.72527 34022 ft 443 kts 234°
2026-05-07 06:37 44.16731 53.65534 34021 ft 443 kts 234°
2026-05-07 06:38 44.13176 53.58611 34028 ft 443 kts 234°
2026-05-07 06:38 44.09579 53.51622 34037 ft 443 kts 234°
2026-05-07 06:39 44.05985 53.44655 34027 ft 444 kts 233°
2026-05-07 06:39 44.02386 53.37696 34033 ft 444 kts 233°
2026-05-07 06:40 43.98777 53.30735 34022 ft 444 kts 233°
2026-05-07 06:40 43.95177 53.23804 34020 ft 444 kts 233°
2026-05-07 06:41 43.91549 53.16837 34033 ft 445 kts 233°
2026-05-07 06:41 43.87905 53.09856 34032 ft 447 kts 233°
2026-05-07 06:42 43.84260 53.02888 34030 ft 447 kts 233°
2026-05-07 06:42 43.80600 52.95900 34035 ft 448 kts 233°
2026-05-07 06:43 43.76933 52.88914 34040 ft 449 kts 233°
2026-05-07 06:43 43.73262 52.81938 34039 ft 449 kts 233°
2026-05-07 06:44 43.69590 52.74973 34050 ft 448 kts 233°
2026-05-07 06:44 43.65911 52.68013 34020 ft 448 kts 233°
2026-05-07 06:45 43.62230 52.61104 34038 ft 446 kts 233°
2026-05-07 06:45 43.58542 52.54222 34045 ft 445 kts 233°
2026-05-07 06:46 43.54863 52.47367 34046 ft 445 kts 233°
2026-05-07 06:46 43.51179 52.40514 34047 ft 444 kts 233°
2026-05-07 06:47 43.47496 52.33675 34051 ft 445 kts 233°
2026-05-07 06:47 43.43810 52.26846 34057 ft 445 kts 233°
2026-05-07 06:48 43.40112 52.20012 34067 ft 445 kts 233°
2026-05-07 06:48 43.36413 52.13191 34063 ft 445 kts 233°
2026-05-07 06:49 43.32708 52.06376 34062 ft 446 kts 233°
2026-05-07 06:49 43.28986 51.99545 34076 ft 446 kts 233°
2026-05-07 06:50 43.25273 51.92747 34068 ft 446 kts 233°
2026-05-07 06:50 43.21547 51.85940 34061 ft 445 kts 233°
2026-05-07 06:51 43.17828 51.79161 34069 ft 444 kts 233°
2026-05-07 06:51 43.14113 51.72407 34078 ft 444 kts 233°
2026-05-07 06:52 43.11025 51.66802 34071 ft 444 kts 233°
2026-05-07 06:52 43.07311 51.60076 34069 ft 443 kts 233°
2026-05-07 06:53 43.03587 51.53348 34070 ft 443 kts 233°
2026-05-07 06:53 42.99867 51.46642 34075 ft 443 kts 233°
2026-05-07 06:54 42.96141 51.39940 34073 ft 443 kts 233°
2026-05-07 06:54 42.92416 51.33255 34073 ft 443 kts 233°
2026-05-07 06:55 42.88683 51.26571 34082 ft 443 kts 233°
2026-05-07 06:55 42.84946 51.19895 34072 ft 442 kts 233°
2026-05-07 06:56 42.81217 51.13249 34086 ft 442 kts 233°
2026-05-07 06:56 42.77477 51.06595 34093 ft 442 kts 233°
2026-05-07 06:57 42.73738 50.99962 34098 ft 442 kts 233°
2026-05-07 06:57 42.70001 50.93343 34094 ft 442 kts 233°
2026-05-07 06:58 42.66255 50.86725 34096 ft 441 kts 233°
2026-05-07 06:58 42.62514 50.80131 34095 ft 441 kts 233°
2026-05-07 06:59 42.58763 50.73533 34098 ft 441 kts 233°
2026-05-07 06:59 42.55010 50.66946 34098 ft 441 kts 233°
2026-05-07 07:00 42.51262 50.60380 34106 ft 440 kts 233°
2026-05-07 07:00 42.47515 50.53830 34109 ft 440 kts 233°
2026-05-07 07:01 42.43759 50.47280 34103 ft 440 kts 232°
2026-05-07 07:01 42.40123 50.40614 34104 ft 440 kts 235°
2026-05-07 07:02 42.36599 50.33841 34104 ft 440 kts 235°
2026-05-07 07:02 42.33060 50.27086 34106 ft 440 kts 234°
2026-05-07 07:03 42.29499 50.20355 34106 ft 440 kts 234°
2026-05-07 07:03 42.25923 50.13631 34106 ft 440 kts 234°
2026-05-07 07:04 42.22342 50.06917 34107 ft 441 kts 234°
2026-05-07 07:04 42.18782 50.00255 34110 ft 441 kts 234°
2026-05-07 07:05 42.15200 49.93564 34111 ft 441 kts 234°
2026-05-07 07:05 42.11600 49.86856 34113 ft 441 kts 234°
2026-05-07 07:06 42.08003 49.80168 34111 ft 441 kts 234°
2026-05-07 07:06 42.04406 49.73495 34113 ft 441 kts 234°
2026-05-07 07:07 42.00797 49.66814 34115 ft 441 kts 234°
2026-05-07 07:07 41.97185 49.60143 34109 ft 441 kts 234°
2026-05-07 07:08 41.93569 49.53478 34106 ft 440 kts 234°
2026-05-07 07:08 41.89961 49.46842 34113 ft 440 kts 234°
2026-05-07 07:09 41.86349 49.40213 34114 ft 440 kts 234°
2026-05-07 07:09 41.82737 49.33595 34117 ft 440 kts 234°
2026-05-07 07:10 41.79165 49.26927 34113 ft 440 kts 236°
2026-05-07 07:10 41.75803 49.20081 34115 ft 440 kts 237°
2026-05-07 07:11 41.72450 49.13229 34105 ft 440 kts 236°
2026-05-07 07:11 41.69070 49.06418 34114 ft 440 kts 236°
2026-05-07 07:12 41.65670 48.99615 34114 ft 440 kts 236°
2026-05-07 07:12 41.62264 48.92819 34117 ft 440 kts 236°
2026-05-07 07:13 41.58856 48.86031 34118 ft 440 kts 236°
2026-05-07 07:13 41.55468 48.79293 34115 ft 440 kts 236°
2026-05-07 07:14 41.52028 48.72484 34117 ft 440 kts 235°
2026-05-07 07:14 41.48362 48.65953 34119 ft 440 kts 232°
2026-05-07 07:15 41.44642 48.59470 34120 ft 440 kts 233°
2026-05-07 07:15 41.40987 48.52950 34119 ft 440 kts 234°
2026-05-07 07:16 41.37394 48.46337 34128 ft 440 kts 234°
2026-05-07 07:16 41.33829 48.39759 34133 ft 440 kts 234°
2026-05-07 07:17 41.30240 48.33177 34123 ft 440 kts 234°
2026-05-07 07:17 41.26640 48.26599 34137 ft 440 kts 234°
2026-05-07 07:18 41.23039 48.20033 34142 ft 439 kts 234°
2026-05-07 07:18 41.19445 48.13491 34158 ft 439 kts 234°
2026-05-07 07:19 41.15832 48.06932 34156 ft 439 kts 234°
2026-05-07 07:19 41.12638 48.00130 34140 ft 435 kts 251°
2026-05-07 07:20 41.11834 47.92121 34142 ft 446 kts 269°
2026-05-07 07:20 41.12984 47.83938 34147 ft 455 kts 278°
2026-05-07 07:21 41.14365 47.75730 34138 ft 457 kts 277°
2026-05-07 07:21 41.15691 47.67489 34158 ft 458 kts 277°
2026-05-07 07:22 41.16983 47.59212 34169 ft 457 kts 277°
2026-05-07 07:22 41.18259 47.50932 34155 ft 458 kts 277°
2026-05-07 07:23 41.19526 47.42669 34166 ft 457 kts 277°
2026-05-07 07:23 41.20792 47.34426 34207 ft 455 kts 277°
2026-05-07 07:24 41.22048 47.26200 34188 ft 454 kts 276°
2026-05-07 07:24 41.23292 47.17970 34198 ft 455 kts 276°
2026-05-07 07:25 41.25159 47.05568 34195 ft 454 kts 276°
2026-05-07 07:26 41.26387 46.97355 34222 ft 453 kts 277°
2026-05-07 07:26 41.27612 46.89122 34212 ft 455 kts 277°
2026-05-07 07:27 41.28835 46.80872 34205 ft 456 kts 277°
2026-05-07 07:27 41.30052 46.72585 34214 ft 456 kts 276°
2026-05-07 07:28 41.31217 46.64295 34203 ft 456 kts 276°
2026-05-07 07:28 41.32367 46.55980 34194 ft 457 kts 276°
2026-05-07 07:29 41.33517 46.47659 34194 ft 458 kts 276°
2026-05-07 07:29 41.34666 46.39329 34194 ft 458 kts 276°
2026-05-07 07:30 41.35808 46.31004 34192 ft 458 kts 276°
2026-05-07 07:30 41.36946 46.22669 34204 ft 457 kts 276°
2026-05-07 07:31 41.38075 46.14346 34199 ft 457 kts 276°
2026-05-07 07:31 41.39011 46.07404 34194 ft 458 kts 276°
2026-05-07 07:32 41.40132 45.99052 34185 ft 459 kts 276°
2026-05-07 07:32 41.41250 45.90677 34185 ft 459 kts 276°
2026-05-07 07:33 41.42362 45.82301 34190 ft 459 kts 276°
2026-05-07 07:33 41.43467 45.73922 34175 ft 460 kts 275°
2026-05-07 07:34 41.44567 45.65537 34177 ft 460 kts 275°
2026-05-07 07:34 41.45663 45.57131 34167 ft 460 kts 275°
2026-05-07 07:35 41.46751 45.48737 34173 ft 460 kts 275°
2026-05-07 07:35 41.47838 45.40307 34170 ft 462 kts 275°
2026-05-07 07:36 41.48739 45.31828 34174 ft 462 kts 272°
2026-05-07 07:36 41.49419 45.23290 34165 ft 463 kts 272°
2026-05-07 07:37 41.50107 45.14753 34169 ft 464 kts 272°
2026-05-07 07:37 41.50799 45.06202 34179 ft 463 kts 272°
2026-05-07 07:38 41.51488 44.97636 34179 ft 465 kts 272°
2026-05-07 07:38 41.52176 44.88984 34191 ft 466 kts 272°
2026-05-07 07:39 41.52851 44.80421 34187 ft 468 kts 272°
2026-05-07 07:39 41.53526 44.71765 34180 ft 468 kts 272°
2026-05-07 07:40 41.54196 44.63115 34167 ft 469 kts 272°
2026-05-07 07:40 41.54856 44.54462 34175 ft 468 kts 272°
2026-05-07 07:41 41.55510 44.45826 34159 ft 468 kts 272°
2026-05-07 07:41 41.56164 44.37120 34175 ft 467 kts 272°
2026-05-07 07:42 41.56850 44.28493 34177 ft 468 kts 276°
2026-05-07 07:42 41.58614 44.20132 34170 ft 475 kts 287°
2026-05-07 07:43 41.61559 44.12161 34192 ft 481 kts 295°
2026-05-07 07:43 41.64804 44.04326 34192 ft 483 kts 295°
2026-05-07 07:44 41.68022 43.96423 34188 ft 484 kts 295°
2026-05-07 07:44 41.71224 43.88489 34176 ft 485 kts 295°
2026-05-07 07:45 41.74423 43.80536 34176 ft 486 kts 295°
2026-05-07 07:45 41.77634 43.72536 34172 ft 487 kts 295°
2026-05-07 07:46 41.80829 43.64550 34177 ft 487 kts 295°
2026-05-07 07:46 41.84025 43.56545 34167 ft 487 kts 295°
2026-05-07 07:47 41.87218 43.48525 34179 ft 487 kts 295°
2026-05-07 07:47 41.90405 43.40493 34180 ft 487 kts 295°
2026-05-07 07:48 41.93585 43.32460 34189 ft 488 kts 295°
2026-05-07 07:48 41.96768 43.24397 34190 ft 488 kts 295°
2026-05-07 07:49 41.99946 43.16324 34205 ft 489 kts 295°
2026-05-07 07:49 42.03126 43.08226 34192 ft 490 kts 296°
2026-05-07 07:50 42.05268 42.99745 34188 ft 478 kts 269°
2026-05-07 07:50 42.04967 42.95314 34201 ft 476 kts 256°
2026-05-07 07:50 42.03922 42.91106 34183 ft 474 kts 245°
2026-05-07 07:51 42.01136 42.83010 34195 ft 478 kts 245°
2026-05-07 07:51 41.98405 42.74809 34191 ft 483 kts 245°
2026-05-07 07:52 41.95690 42.66549 34187 ft 485 kts 245°
2026-05-07 07:52 41.92961 42.58238 34182 ft 485 kts 245°
2026-05-07 07:53 41.90226 42.49939 34193 ft 487 kts 246°
2026-05-07 07:53 41.87478 42.41627 34185 ft 487 kts 245°
2026-05-07 07:54 41.84726 42.33332 34186 ft 488 kts 245°
2026-05-07 07:54 41.81960 42.25022 34185 ft 487 kts 245°
2026-05-07 07:55 41.79176 42.16682 34183 ft 486 kts 245°
2026-05-07 07:55 41.76415 42.08438 34187 ft 485 kts 245°
2026-05-07 07:56 41.73648 42.00197 34195 ft 485 kts 245°
2026-05-07 07:56 41.70870 41.91952 34199 ft 485 kts 245°
2026-05-07 07:57 41.68095 41.83737 34214 ft 485 kts 245°
2026-05-07 07:57 41.65311 41.75518 34218 ft 485 kts 245°
2026-05-07 07:58 41.62513 41.67285 34211 ft 486 kts 245°
2026-05-07 07:58 41.59732 41.59120 34211 ft 486 kts 245°
2026-05-07 07:59 41.56924 41.50847 34207 ft 484 kts 248°
2026-05-07 07:59 41.55343 41.42136 34223 ft 485 kts 264°
2026-05-07 08:00 41.55494 41.33131 34222 ft 487 kts 275°
2026-05-07 08:00 41.56102 41.24083 34218 ft 490 kts 274°
2026-05-07 08:01 41.56625 41.15000 34221 ft 492 kts 274°
2026-05-07 08:01 41.57128 41.05871 34216 ft 493 kts 274°
2026-05-07 08:02 41.57627 40.96734 34210 ft 494 kts 274°
2026-05-07 08:02 41.58124 40.87578 34218 ft 494 kts 274°
2026-05-07 08:03 41.58613 40.78416 34211 ft 494 kts 274°
2026-05-07 08:03 41.59096 40.69266 34215 ft 494 kts 274°
2026-05-07 08:04 41.59570 40.60118 34221 ft 493 kts 274°
2026-05-07 08:04 41.60030 40.50982 34216 ft 493 kts 274°
2026-05-07 08:05 41.60483 40.41843 34216 ft 493 kts 274°
2026-05-07 08:05 41.60930 40.32702 34215 ft 494 kts 274°
2026-05-07 08:06 41.61372 40.23524 34215 ft 494 kts 274°
2026-05-07 08:06 41.61805 40.14370 34220 ft 494 kts 274°
2026-05-07 08:07 41.62232 40.05192 34219 ft 494 kts 274°
2026-05-07 08:07 41.62652 39.96023 34217 ft 494 kts 274°
2026-05-07 08:08 41.63059 39.86951 34218 ft 494 kts 273°
2026-05-07 08:08 41.63465 39.77759 34219 ft 494 kts 274°
2026-05-07 08:09 41.63863 39.68576 34218 ft 495 kts 274°
2026-05-07 08:09 41.64254 39.59407 34223 ft 495 kts 274°
2026-05-07 08:10 41.64641 39.50209 34219 ft 495 kts 274°
2026-05-07 08:10 41.65023 39.41031 34219 ft 495 kts 274°
2026-05-07 08:11 41.65399 39.31839 34211 ft 495 kts 274°
2026-05-07 08:11 41.65768 39.22618 34221 ft 496 kts 274°
2026-05-07 08:12 41.66130 39.13390 34222 ft 497 kts 274°
2026-05-07 08:12 41.66427 39.05660 34218 ft 498 kts 274°
2026-05-07 08:13 41.66777 38.96391 34209 ft 498 kts 274°
2026-05-07 08:13 41.67116 38.87199 34214 ft 499 kts 274°
2026-05-07 08:14 41.67453 38.77867 34218 ft 499 kts 274°
2026-05-07 08:14 41.67779 38.68641 34214 ft 499 kts 274°
2026-05-07 08:15 41.68099 38.59365 34212 ft 499 kts 273°
2026-05-07 08:15 41.68414 38.50039 34209 ft 499 kts 274°
2026-05-07 08:16 41.68717 38.40818 34216 ft 499 kts 274°
2026-05-07 08:16 41.69017 38.31474 34213 ft 499 kts 273°
2026-05-07 08:17 41.69305 38.22270 34211 ft 499 kts 273°
2026-05-07 08:17 41.69587 38.12988 34201 ft 499 kts 274°
2026-05-07 08:18 41.69865 38.03643 34209 ft 500 kts 274°
2026-05-07 08:18 41.70133 37.94352 34213 ft 500 kts 273°
2026-05-07 08:19 41.70394 37.85052 34206 ft 500 kts 273°
2026-05-07 08:19 41.70649 37.75745 34206 ft 500 kts 273°
2026-05-07 08:20 41.71385 37.66513 34199 ft 497 kts 284°
2026-05-07 08:20 41.73470 37.57757 34204 ft 494 kts 295°
2026-05-07 08:21 41.76249 37.49352 34214 ft 494 kts 295°
2026-05-07 08:21 41.78961 37.40875 34196 ft 494 kts 295°
2026-05-07 08:22 41.81640 37.32393 34203 ft 495 kts 295°
2026-05-07 08:22 41.84316 37.23899 34203 ft 495 kts 295°
2026-05-07 08:23 41.87000 37.15364 34210 ft 495 kts 295°
2026-05-07 08:23 41.89553 37.06789 34196 ft 497 kts 289°
2026-05-07 08:24 41.90977 36.97685 34205 ft 501 kts 277°
2026-05-07 08:24 41.91519 36.88355 34195 ft 501 kts 276°
2026-05-07 08:25 41.92115 36.79035 34202 ft 501 kts 277°
2026-05-07 08:25 41.92735 36.69720 34205 ft 501 kts 277°
2026-05-07 08:26 41.93658 36.55738 34197 ft 500 kts 277°
2026-05-07 08:26 41.94257 36.46440 34197 ft 500 kts 277°
2026-05-07 08:27 41.94849 36.37145 34196 ft 499 kts 277°
2026-05-07 08:27 41.95431 36.27860 34196 ft 499 kts 277°
2026-05-07 08:28 41.96008 36.18565 34196 ft 499 kts 277°
2026-05-07 08:28 41.96576 36.09268 34192 ft 499 kts 277°
2026-05-07 08:29 41.97137 35.99978 34193 ft 499 kts 277°
2026-05-07 08:29 41.97690 35.90689 34182 ft 498 kts 277°
2026-05-07 08:30 41.98233 35.81439 34186 ft 497 kts 276°
2026-05-07 08:30 41.98768 35.72209 34190 ft 496 kts 276°
2026-05-07 08:31 41.99296 35.62956 34185 ft 496 kts 276°
2026-05-07 08:31 41.99812 35.53777 34179 ft 495 kts 276°
2026-05-07 08:32 42.00327 35.44494 34183 ft 494 kts 276°
2026-05-07 08:32 42.00831 35.35292 34181 ft 494 kts 276°
2026-05-07 08:33 42.01327 35.26080 34188 ft 494 kts 276°
2026-05-07 08:33 42.01816 35.16874 34168 ft 492 kts 277°
2026-05-07 08:34 42.02269 35.07693 34177 ft 492 kts 275°
2026-05-07 08:34 42.01895 34.98479 34174 ft 495 kts 267°
2026-05-07 08:35 42.01359 34.89275 34165 ft 493 kts 269°
2026-05-07 08:35 42.00916 34.80079 34168 ft 493 kts 269°
2026-05-07 08:36 42.00471 34.70884 34160 ft 493 kts 270°
2026-05-07 08:36 42.00017 34.61697 34157 ft 492 kts 270°
2026-05-07 08:37 41.99556 34.52528 34152 ft 492 kts 270°
2026-05-07 08:37 41.99086 34.43356 34166 ft 492 kts 270°
2026-05-07 08:38 41.98609 34.34184 34162 ft 492 kts 270°
2026-05-07 08:38 41.98125 34.25018 34158 ft 491 kts 270°
2026-05-07 08:39 41.97634 34.15882 34159 ft 491 kts 270°
2026-05-07 08:39 41.97139 34.06736 34152 ft 490 kts 270°
2026-05-07 08:40 41.96632 33.97618 34157 ft 489 kts 270°
2026-05-07 08:40 41.96126 33.88558 34155 ft 489 kts 270°
2026-05-07 08:41 41.95607 33.79412 34154 ft 488 kts 270°
2026-05-07 08:41 41.95559 33.70344 34142 ft 481 kts 280°
2026-05-07 08:42 41.96746 33.61637 34161 ft 475 kts 289°
2026-05-07 08:42 41.98488 33.53014 34148 ft 475 kts 289°
2026-05-07 08:43 42.00152 33.44415 34139 ft 475 kts 288°
2026-05-07 08:43 42.01792 33.35819 34152 ft 474 kts 288°
2026-05-07 08:44 42.03415 33.27287 34150 ft 473 kts 288°
2026-05-07 08:44 42.05041 33.18712 34155 ft 473 kts 288°
2026-05-07 08:45 42.06662 33.10136 34153 ft 472 kts 287°
2026-05-07 08:45 42.08334 33.01595 34160 ft 472 kts 288°
2026-05-07 08:46 42.10100 32.93116 34158 ft 472 kts 289°
2026-05-07 08:46 42.11861 32.84583 34155 ft 472 kts 288°
2026-05-07 08:47 42.13598 32.76051 34155 ft 472 kts 288°
2026-05-07 08:47 42.15336 32.67465 34163 ft 472 kts 288°
2026-05-07 08:48 42.17056 32.58942 34161 ft 472 kts 288°
2026-05-07 08:48 42.18767 32.50402 34163 ft 472 kts 288°
2026-05-07 08:49 42.20461 32.41910 34159 ft 472 kts 288°
2026-05-07 08:49 42.22158 32.33363 34162 ft 472 kts 288°
2026-05-07 08:50 42.23576 32.26205 34164 ft 472 kts 288°
2026-05-07 08:50 42.25538 32.16260 34159 ft 471 kts 288°
2026-05-07 08:51 42.27223 32.07707 34161 ft 471 kts 288°
2026-05-07 08:51 42.28609 32.00601 34166 ft 471 kts 288°
2026-05-07 08:52 42.30269 31.92050 34165 ft 471 kts 288°
2026-05-07 08:52 42.31921 31.83507 34163 ft 470 kts 288°
2026-05-07 08:53 42.33566 31.74966 34159 ft 468 kts 288°
2026-05-07 08:53 42.35198 31.66463 34157 ft 466 kts 288°
2026-05-07 08:54 42.36815 31.57993 34162 ft 465 kts 288°
2026-05-07 08:54 42.38420 31.49553 34151 ft 463 kts 288°
2026-05-07 08:55 42.40018 31.41115 34160 ft 463 kts 288°
2026-05-07 08:55 42.41613 31.32654 34168 ft 463 kts 288°
2026-05-07 08:56 42.43199 31.24209 34167 ft 464 kts 288°
2026-05-07 08:56 42.44784 31.15728 34159 ft 464 kts 288°
2026-05-07 08:57 42.46359 31.07264 34163 ft 463 kts 288°
2026-05-07 08:57 42.47929 30.98813 34166 ft 463 kts 288°
2026-05-07 08:58 42.49498 30.90336 34164 ft 463 kts 288°
2026-05-07 08:58 42.51053 30.81894 34159 ft 462 kts 288°
2026-05-07 08:59 42.52603 30.73440 34165 ft 461 kts 288°
2026-05-07 08:59 42.54138 30.65028 34166 ft 460 kts 288°
2026-05-07 09:00 42.55674 30.56579 34251 ft 462 kts 288°
2026-05-07 09:00 42.56441 30.52347 34454 ft 462 kts 288°
2026-05-07 09:00 42.57204 30.48122 34699 ft 462 kts 288°
2026-05-07 09:01 42.57965 30.43896 34920 ft 461 kts 288°
2026-05-07 09:01 42.58728 30.39657 35116 ft 462 kts 288°
2026-05-07 09:01 42.59490 30.35415 35306 ft 462 kts 287°
2026-05-07 09:01 42.60315 30.31209 35493 ft 460 kts 292°
2026-05-07 09:02 42.61507 30.27197 35686 ft 457 kts 299°
2026-05-07 09:02 42.62991 30.23410 35877 ft 455 kts 303°
2026-05-07 09:02 42.64726 30.19818 36046 ft 453 kts 309°
2026-05-07 09:02 42.66663 30.16451 36096 ft 453 kts 310°
2026-05-07 09:03 42.70522 30.09743 36160 ft 448 kts 309°
2026-05-07 09:03 42.74312 30.03077 36170 ft 445 kts 309°
2026-05-07 09:04 42.78083 29.96400 36155 ft 444 kts 309°
2026-05-07 09:04 42.81811 29.89776 36168 ft 444 kts 309°
2026-05-07 09:05 42.85595 29.83037 36174 ft 445 kts 308°
2026-05-07 09:05 42.89363 29.76310 36174 ft 447 kts 308°
2026-05-07 09:06 42.93141 29.69553 36167 ft 449 kts 308°
2026-05-07 09:06 42.96931 29.62757 36178 ft 450 kts 308°
2026-05-07 09:07 43.00724 29.55941 36175 ft 451 kts 308°
2026-05-07 09:07 43.04505 29.49129 36168 ft 451 kts 308°
2026-05-07 09:08 43.08288 29.42299 36171 ft 450 kts 308°
2026-05-07 09:08 43.12061 29.35472 36172 ft 450 kts 308°
2026-05-07 09:09 43.15836 29.28626 36173 ft 449 kts 308°
2026-05-07 09:09 43.19594 29.21793 36156 ft 449 kts 308°
2026-05-07 09:10 43.23321 29.15002 36164 ft 449 kts 308°
2026-05-07 09:10 43.27070 29.08155 36170 ft 449 kts 308°
2026-05-07 09:11 43.30841 29.01252 36164 ft 450 kts 308°
2026-05-07 09:11 43.34589 28.94374 36156 ft 450 kts 307°
2026-05-07 09:12 43.38344 28.87468 36172 ft 451 kts 307°
2026-05-07 09:12 43.42098 28.80548 36155 ft 452 kts 307°
2026-05-07 09:13 43.45824 28.73662 36149 ft 452 kts 307°
2026-05-07 09:13 43.49607 28.66657 36140 ft 453 kts 307°
2026-05-07 09:14 43.53353 28.59701 36131 ft 453 kts 307°
2026-05-07 09:14 43.57105 28.52718 36132 ft 453 kts 307°
2026-05-07 09:15 43.60847 28.45738 36129 ft 453 kts 307°
2026-05-07 09:15 43.64586 28.38746 36130 ft 452 kts 307°
2026-05-07 09:16 43.68323 28.31742 36133 ft 452 kts 307°
2026-05-07 09:16 43.72041 28.24756 36110 ft 451 kts 307°
2026-05-07 09:17 43.75752 28.17767 36103 ft 451 kts 307°
2026-05-07 09:17 43.79459 28.10768 36135 ft 450 kts 307°
2026-05-07 09:18 43.83152 28.03782 36111 ft 450 kts 306°
2026-05-07 09:18 43.86855 27.96756 36107 ft 452 kts 306°
2026-05-07 09:19 43.90558 27.89714 36110 ft 452 kts 306°
2026-05-07 09:19 43.94256 27.82666 36106 ft 452 kts 306°
2026-05-07 09:20 43.97956 27.75597 36101 ft 452 kts 306°
2026-05-07 09:20 44.01636 27.68547 36080 ft 451 kts 306°
2026-05-07 09:21 44.05317 27.61481 36084 ft 450 kts 306°
2026-05-07 09:21 44.08977 27.54437 36085 ft 449 kts 306°
2026-05-07 09:22 44.12629 27.47390 36084 ft 448 kts 306°
2026-05-07 09:22 44.16269 27.40350 36080 ft 447 kts 306°
2026-05-07 09:23 44.19896 27.33320 36084 ft 447 kts 306°
2026-05-07 09:23 44.23512 27.26291 36074 ft 447 kts 306°
2026-05-07 09:24 44.27144 27.19216 36080 ft 448 kts 306°
2026-05-07 09:24 44.30770 27.12134 36078 ft 449 kts 306°
2026-05-07 09:25 44.34398 27.05034 36076 ft 449 kts 305°
2026-05-07 09:25 44.38031 26.97903 36071 ft 450 kts 305°
2026-05-07 09:26 44.41650 26.90783 36074 ft 449 kts 305°
2026-05-07 09:26 44.45270 26.83643 36070 ft 449 kts 305°
2026-05-07 09:27 44.48872 26.76521 36070 ft 449 kts 305°
2026-05-07 09:28 44.54278 26.65801 36069 ft 449 kts 305°
2026-05-07 09:28 44.57898 26.58593 36071 ft 448 kts 304°
2026-05-07 09:29 44.60946 26.50976 36072 ft 448 kts 294°
2026-05-07 09:29 44.63494 26.43068 36066 ft 448 kts 295°
2026-05-07 09:30 44.66124 26.35131 36067 ft 448 kts 295°
2026-05-07 09:30 44.68751 26.27209 36071 ft 448 kts 295°
2026-05-07 09:31 44.71380 26.19246 36081 ft 449 kts 295°
2026-05-07 09:31 44.73575 26.12569 36076 ft 449 kts 295°
2026-05-07 09:32 44.76189 26.04593 36072 ft 449 kts 295°
2026-05-07 09:32 44.78800 25.96603 36072 ft 449 kts 295°
2026-05-07 09:33 44.81405 25.88606 36067 ft 449 kts 294°
2026-05-07 09:33 44.84004 25.80603 36070 ft 449 kts 294°
2026-05-07 09:34 44.86594 25.72604 36072 ft 449 kts 294°
2026-05-07 09:34 44.89178 25.64599 36067 ft 449 kts 294°
2026-05-07 09:35 44.91761 25.56575 36057 ft 449 kts 294°
2026-05-07 09:35 44.94333 25.48557 36071 ft 449 kts 294°
2026-05-07 09:36 44.96913 25.40491 36067 ft 450 kts 294°
2026-05-07 09:36 44.99497 25.32448 36069 ft 451 kts 295°
2026-05-07 09:37 45.02498 25.24651 36064 ft 452 kts 298°
2026-05-07 09:37 45.05626 25.16918 36068 ft 453 kts 298°
2026-05-07 09:38 45.08728 25.09165 36068 ft 454 kts 298°
2026-05-07 09:38 45.11814 25.01356 36065 ft 455 kts 298°
2026-05-07 09:39 45.14889 24.93520 36065 ft 455 kts 297°
2026-05-07 09:39 45.17965 24.85657 36064 ft 456 kts 297°
2026-05-07 09:40 45.21035 24.77783 36062 ft 457 kts 297°
2026-05-07 09:40 45.24102 24.69905 36067 ft 457 kts 297°
2026-05-07 09:41 45.27170 24.62000 36051 ft 458 kts 297°
2026-05-07 09:41 45.30237 24.54071 36061 ft 458 kts 297°
2026-05-07 09:42 45.33300 24.46132 36063 ft 459 kts 297°
2026-05-07 09:42 45.36366 24.38162 36038 ft 459 kts 297°
2026-05-07 09:43 45.39426 24.30187 36039 ft 460 kts 297°
2026-05-07 09:43 45.42482 24.22196 36038 ft 460 kts 297°
2026-05-07 09:44 45.45537 24.14187 36057 ft 461 kts 296°
2026-05-07 09:44 45.48593 24.06147 36061 ft 461 kts 296°
2026-05-07 09:45 45.51649 23.98086 36074 ft 463 kts 296°
2026-05-07 09:45 45.54703 23.90007 36052 ft 463 kts 296°
2026-05-07 09:46 45.57759 23.81899 36073 ft 464 kts 296°
2026-05-07 09:46 45.60805 23.73796 36056 ft 464 kts 296°
2026-05-07 09:47 45.63854 23.65657 36061 ft 464 kts 296°
2026-05-07 09:47 45.66895 23.57517 36045 ft 464 kts 296°
2026-05-07 09:48 45.69923 23.49386 36060 ft 464 kts 296°
2026-05-07 09:48 45.72955 23.41224 36065 ft 463 kts 296°
2026-05-07 09:49 45.75974 23.33069 36047 ft 463 kts 295°
2026-05-07 09:49 45.78987 23.24904 36040 ft 464 kts 295°
2026-05-07 09:50 45.81993 23.16735 36046 ft 464 kts 295°
2026-05-07 09:50 45.84998 23.08546 36046 ft 464 kts 296°
2026-05-07 09:51 45.87999 23.00340 36046 ft 464 kts 295°
2026-05-07 09:51 45.90990 22.92136 36046 ft 464 kts 295°
2026-05-07 09:52 45.93986 22.83898 36050 ft 465 kts 295°
2026-05-07 09:52 45.96971 22.75663 36050 ft 465 kts 295°
2026-05-07 09:53 45.99956 22.67402 36059 ft 465 kts 295°
2026-05-07 09:53 46.02934 22.59134 36052 ft 465 kts 295°
2026-05-07 09:54 46.05904 22.50865 36054 ft 465 kts 295°
2026-05-07 09:54 46.08871 22.42575 36053 ft 465 kts 295°
2026-05-07 09:55 46.11830 22.34285 36070 ft 466 kts 294°
2026-05-07 09:55 46.14788 22.25968 36046 ft 466 kts 294°
2026-05-07 09:56 46.17741 22.17644 36047 ft 466 kts 294°
2026-05-07 09:56 46.20690 22.09306 36047 ft 466 kts 294°
2026-05-07 09:57 46.23625 22.00980 36055 ft 465 kts 293°
2026-05-07 09:57 46.26553 21.92646 36042 ft 465 kts 293°
2026-05-07 09:58 46.29472 21.84312 36046 ft 464 kts 293°
2026-05-07 09:58 46.32380 21.75984 36041 ft 464 kts 293°
2026-05-07 09:59 46.35286 21.67636 36054 ft 465 kts 293°
2026-05-07 09:59 46.38191 21.59259 36042 ft 465 kts 292°
2026-05-07 10:00 46.41091 21.50875 36039 ft 466 kts 292°
2026-05-07 10:00 46.43995 21.42452 36043 ft 467 kts 292°
2026-05-07 10:01 46.46894 21.34017 36031 ft 468 kts 292°
2026-05-07 10:01 46.49792 21.25565 36034 ft 468 kts 292°
2026-05-07 10:02 46.52718 21.17123 36029 ft 468 kts 292°
2026-05-07 10:02 46.55655 21.08678 36018 ft 468 kts 292°
2026-05-07 10:03 46.58580 21.00232 36036 ft 468 kts 292°
2026-05-07 10:03 46.61497 20.91768 36027 ft 468 kts 292°
2026-05-07 10:04 46.64404 20.83302 36016 ft 468 kts 292°
2026-05-07 10:04 46.67300 20.74842 36015 ft 467 kts 292°
2026-05-07 10:05 46.70194 20.66357 36023 ft 467 kts 291°
2026-05-07 10:05 46.73081 20.57868 36014 ft 468 kts 291°
2026-05-07 10:06 46.75967 20.49351 36006 ft 468 kts 291°
2026-05-07 10:06 46.78841 20.40844 36011 ft 468 kts 291°
2026-05-07 10:07 46.81720 20.32295 36011 ft 468 kts 291°
2026-05-07 10:07 46.84581 20.23768 36006 ft 468 kts 291°
2026-05-07 10:08 46.87443 20.15218 36007 ft 467 kts 291°
2026-05-07 10:08 46.90283 20.06700 36008 ft 467 kts 291°
2026-05-07 10:09 46.93126 19.98147 36025 ft 467 kts 291°
2026-05-07 10:09 46.95481 19.91037 36022 ft 467 kts 291°
2026-05-07 10:10 46.98307 19.82482 36023 ft 467 kts 291°
2026-05-07 10:10 47.01131 19.73904 36018 ft 468 kts 291°
2026-05-07 10:11 47.03954 19.65301 36025 ft 468 kts 290°
2026-05-07 10:11 47.06773 19.56680 36007 ft 469 kts 290°
2026-05-07 10:12 47.09591 19.48036 35997 ft 470 kts 290°
2026-05-07 10:12 47.12401 19.39387 35994 ft 470 kts 290°
2026-05-07 10:13 47.15208 19.30718 35997 ft 470 kts 290°
2026-05-07 10:13 47.18009 19.22034 36005 ft 470 kts 290°
2026-05-07 10:14 47.20789 19.13390 35995 ft 471 kts 290°
2026-05-07 10:14 47.23581 19.04681 35996 ft 471 kts 290°
2026-05-07 10:15 47.26383 18.95907 36001 ft 471 kts 290°
2026-05-07 10:15 47.29138 18.87249 36005 ft 472 kts 290°
2026-05-07 10:16 47.31918 18.78484 36001 ft 473 kts 290°
2026-05-07 10:16 47.34699 18.69688 35997 ft 473 kts 290°
2026-05-07 10:17 47.37470 18.60890 36002 ft 473 kts 290°
2026-05-07 10:17 47.40238 18.52075 35990 ft 473 kts 289°
2026-05-07 10:18 47.42994 18.43263 35987 ft 473 kts 289°
2026-05-07 10:18 47.45743 18.34447 35984 ft 472 kts 289°
2026-05-07 10:19 47.48481 18.25630 35994 ft 472 kts 289°
2026-05-07 10:19 47.51211 18.16811 35993 ft 472 kts 289°
2026-05-07 10:20 47.53937 18.07976 35992 ft 471 kts 289°
2026-05-07 10:20 47.56649 17.99150 35985 ft 471 kts 289°
2026-05-07 10:21 47.59356 17.90311 35990 ft 471 kts 289°
2026-05-07 10:21 47.62060 17.81448 35997 ft 472 kts 288°
2026-05-07 10:22 47.64761 17.72568 36000 ft 473 kts 288°
2026-05-07 10:22 47.67460 17.63658 35992 ft 473 kts 288°
2026-05-07 10:23 47.70150 17.54750 35990 ft 473 kts 288°
2026-05-07 10:23 47.72838 17.45815 36004 ft 474 kts 288°
2026-05-07 10:24 47.75517 17.36878 35986 ft 474 kts 288°
2026-05-07 10:24 47.78193 17.27917 35975 ft 474 kts 288°
2026-05-07 10:25 47.80861 17.18956 35979 ft 474 kts 288°
2026-05-07 10:25 47.83922 17.10227 36017 ft 481 kts 296°
2026-05-07 10:26 47.88061 17.02257 35994 ft 490 kts 303°
2026-05-07 10:26 47.92437 16.94459 35980 ft 490 kts 303°
2026-05-07 10:27 47.96772 16.86617 35987 ft 490 kts 303°
2026-05-07 10:27 48.01087 16.78746 35986 ft 490 kts 303°
2026-05-07 10:28 48.05404 16.70844 35997 ft 490 kts 303°
2026-05-07 10:28 48.09703 16.62952 35995 ft 490 kts 303°
2026-05-07 10:29 48.14015 16.55017 35991 ft 490 kts 303°
2026-05-07 10:29 48.18304 16.47106 35996 ft 489 kts 303°
2026-05-07 10:30 48.24729 16.35203 35992 ft 490 kts 302°
2026-05-07 10:30 48.28980 16.27300 35974 ft 490 kts 302°
2026-05-07 10:31 48.33281 16.19279 35978 ft 489 kts 302°
2026-05-07 10:31 48.37516 16.11360 36011 ft 489 kts 302°
2026-05-07 10:32 48.41778 16.03368 35979 ft 490 kts 302°
2026-05-07 10:32 48.46062 15.95307 35978 ft 490 kts 302°
2026-05-07 10:33 48.50294 15.87321 35969 ft 491 kts 302°
2026-05-07 10:33 48.54543 15.79280 35966 ft 490 kts 302°
2026-05-07 10:34 48.58801 15.71196 35960 ft 492 kts 302°
2026-05-07 10:34 48.63057 15.63092 35958 ft 493 kts 302°
2026-05-07 10:35 48.67316 15.54958 35957 ft 494 kts 302°
2026-05-07 10:35 48.71608 15.46736 35962 ft 495 kts 302°
2026-05-07 10:36 48.75843 15.38601 35981 ft 495 kts 302°
2026-05-07 10:36 48.80107 15.30380 35971 ft 496 kts 302°
2026-05-07 10:37 48.84362 15.22153 35961 ft 495 kts 302°
2026-05-07 10:37 48.88606 15.13926 35965 ft 494 kts 302°
2026-05-07 10:38 48.92888 15.05726 35999 ft 495 kts 303°
2026-05-07 10:38 48.97246 14.97609 35974 ft 495 kts 303°
2026-05-07 10:39 49.01603 14.89485 35951 ft 495 kts 303°
2026-05-07 10:39 49.05934 14.81345 35968 ft 495 kts 303°
2026-05-07 10:40 49.10263 14.73163 35963 ft 495 kts 303°
2026-05-07 10:40 49.14586 14.64967 35959 ft 495 kts 303°
2026-05-07 10:41 49.18899 14.56762 35958 ft 496 kts 303°
2026-05-07 10:41 49.23213 14.48535 35951 ft 496 kts 303°
2026-05-07 10:42 49.27517 14.40300 35951 ft 496 kts 303°
2026-05-07 10:42 49.31794 14.32092 35974 ft 496 kts 303°
2026-05-07 10:43 49.36123 14.23761 35964 ft 496 kts 303°
2026-05-07 10:43 49.40409 14.15483 35955 ft 495 kts 303°
2026-05-07 10:44 49.44682 14.07205 35963 ft 495 kts 303°
2026-05-07 10:44 49.48951 13.98909 35982 ft 494 kts 303°
2026-05-07 10:45 49.53209 13.90609 35958 ft 494 kts 303°
2026-05-07 10:45 49.57462 13.82290 35959 ft 494 kts 303°
2026-05-07 10:46 49.61709 13.73955 35957 ft 494 kts 303°
2026-05-07 10:46 49.65949 13.65613 35960 ft 494 kts 303°
2026-05-07 10:47 49.70190 13.57241 35965 ft 495 kts 304°
2026-05-07 10:47 49.74427 13.48850 35963 ft 496 kts 304°
2026-05-07 10:48 49.78655 13.40450 35961 ft 496 kts 304°
2026-05-07 10:48 49.82889 13.32012 35957 ft 496 kts 304°
2026-05-07 10:49 49.87121 13.23550 35956 ft 496 kts 304°
2026-05-07 10:49 49.91342 13.15082 35949 ft 497 kts 304°
2026-05-07 10:50 49.95535 13.06644 35935 ft 497 kts 304°
2026-05-07 10:50 49.99754 12.98127 35938 ft 498 kts 304°
2026-05-07 10:51 50.03945 12.89640 35932 ft 498 kts 304°
2026-05-07 10:51 50.07474 12.82469 35950 ft 499 kts 305°
2026-05-07 10:52 50.12371 12.72489 35936 ft 498 kts 304°
2026-05-07 10:52 50.15887 12.65302 35927 ft 497 kts 304°
2026-05-07 10:53 50.20063 12.56736 35931 ft 496 kts 304°
2026-05-07 10:53 50.24230 12.48159 35947 ft 495 kts 305°
2026-05-07 10:54 50.28392 12.39569 35946 ft 496 kts 305°
2026-05-07 10:54 50.32554 12.31019 35943 ft 498 kts 305°
2026-05-07 10:55 50.36784 12.22396 35921 ft 499 kts 305°
2026-05-07 10:55 50.40995 12.13781 35943 ft 497 kts 305°
2026-05-07 10:56 50.45184 12.05167 35932 ft 496 kts 305°
2026-05-07 10:56 50.49387 11.96488 35935 ft 495 kts 305°
2026-05-07 10:57 50.53509 11.87947 35938 ft 494 kts 305°
2026-05-07 10:57 50.57655 11.79331 35946 ft 494 kts 305°
2026-05-07 10:58 50.61795 11.70697 35967 ft 494 kts 305°
2026-05-07 10:58 50.65931 11.62044 35957 ft 494 kts 305°
2026-05-07 10:59 50.70090 11.53315 35950 ft 495 kts 305°
2026-05-07 10:59 50.74216 11.44624 35950 ft 494 kts 305°
2026-05-07 11:00 50.78330 11.35931 35959 ft 494 kts 305°
2026-05-07 11:00 50.82418 11.27264 35964 ft 494 kts 305°
2026-05-07 11:01 50.86524 11.18529 35978 ft 494 kts 305°
2026-05-07 11:01 50.90615 11.09799 35988 ft 493 kts 305°
2026-05-07 11:02 50.94695 11.01060 35994 ft 493 kts 305°
2026-05-07 11:02 50.98764 10.92317 35999 ft 493 kts 305°
2026-05-07 11:03 51.02833 10.83545 36003 ft 493 kts 305°
2026-05-07 11:03 51.06887 10.74774 35987 ft 492 kts 305°
2026-05-07 11:04 51.10933 10.65991 35986 ft 492 kts 305°
2026-05-07 11:04 51.14974 10.57191 35984 ft 492 kts 305°
2026-05-07 11:05 51.19004 10.48382 35991 ft 492 kts 305°
2026-05-07 11:05 51.23033 10.39552 35984 ft 492 kts 305°
2026-05-07 11:06 51.26659 10.30333 35980 ft 490 kts 295°
2026-05-07 11:06 51.29583 10.20483 35985 ft 490 kts 294°
2026-05-07 11:07 51.32527 10.10666 35994 ft 490 kts 295°
2026-05-07 11:07 51.35494 10.00851 36000 ft 489 kts 294°
2026-05-07 11:08 51.38451 9.91063 35993 ft 489 kts 295°
2026-05-07 11:08 51.41400 9.81262 36004 ft 488 kts 295°
2026-05-07 11:09 51.44330 9.71478 36015 ft 487 kts 294°
2026-05-07 11:09 51.47257 9.61661 36023 ft 488 kts 294°
2026-05-07 11:10 51.50175 9.51834 36025 ft 488 kts 294°
2026-05-07 11:10 51.53087 9.41985 36015 ft 488 kts 294°
2026-05-07 11:11 51.55989 9.32135 36002 ft 487 kts 294°
2026-05-07 11:11 51.58876 9.22291 36008 ft 487 kts 294°
2026-05-07 11:12 51.61755 9.12436 36014 ft 487 kts 294°
2026-05-07 11:12 51.64623 9.02576 36033 ft 486 kts 294°
2026-05-07 11:13 51.67480 8.92712 36032 ft 486 kts 294°
2026-05-07 11:13 51.70333 8.82824 36041 ft 486 kts 294°
2026-05-07 11:14 51.73171 8.72945 36052 ft 487 kts 294°
2026-05-07 11:14 51.76013 8.63012 36045 ft 487 kts 294°
2026-05-07 11:15 51.78837 8.53101 36048 ft 486 kts 294°
2026-05-07 11:15 51.81658 8.43155 36035 ft 486 kts 294°
2026-05-07 11:16 51.84468 8.33208 36039 ft 485 kts 294°
2026-05-07 11:16 51.87267 8.23258 36040 ft 485 kts 294°
2026-05-07 11:17 51.90050 8.13322 36036 ft 485 kts 294°
2026-05-07 11:17 51.92827 8.03366 36041 ft 485 kts 294°
2026-05-07 11:18 51.95597 7.93391 36045 ft 485 kts 294°
2026-05-07 11:18 51.98351 7.83430 36048 ft 485 kts 294°
2026-05-07 11:19 52.01107 7.73425 36061 ft 485 kts 293°
2026-05-07 11:19 52.03854 7.63405 36082 ft 485 kts 293°
2026-05-07 11:20 52.06587 7.53392 36075 ft 484 kts 293°
2026-05-07 11:20 52.09303 7.43396 35161 ft 486 kts 293°
2026-05-07 11:21 52.10659 7.38391 34400 ft 485 kts 294°
2026-05-07 11:21 52.12018 7.33364 33492 ft 485 kts 293°
2026-05-07 11:21 52.13374 7.28340 32547 ft 485 kts 293°
2026-05-07 11:21 52.14728 7.23310 31640 ft 484 kts 293°
2026-05-07 11:22 52.16075 7.18292 30702 ft 484 kts 293°
2026-05-07 11:22 52.17416 7.13288 30055 ft 479 kts 293°
2026-05-07 11:22 52.18741 7.08337 29295 ft 474 kts 293°
2026-05-07 11:22 52.20049 7.03435 28679 ft 468 kts 293°
2026-05-07 11:23 52.21345 6.98606 28065 ft 462 kts 294°
2026-05-07 11:23 52.22940 6.94149 27565 ft 452 kts 306°
2026-05-07 11:23 52.24979 6.90303 27169 ft 448 kts 311°
2026-05-07 11:23 52.27090 6.86545 26699 ft 451 kts 310°
2026-05-07 11:24 52.29126 6.82623 26241 ft 453 kts 308°
2026-05-07 11:24 52.31102 6.78625 25783 ft 451 kts 308°
2026-05-07 11:24 52.33061 6.74641 25326 ft 447 kts 308°
2026-05-07 11:24 52.35004 6.70712 24870 ft 442 kts 308°
2026-05-07 11:25 52.36939 6.66821 24439 ft 438 kts 308°
2026-05-07 11:25 52.38846 6.62967 24003 ft 434 kts 307°
2026-05-07 11:25 52.40735 6.59147 23563 ft 430 kts 307°
2026-05-07 11:25 52.42611 6.55352 23050 ft 427 kts 307°
2026-05-07 11:26 52.44469 6.51584 22598 ft 423 kts 307°
2026-05-07 11:26 52.46199 6.47774 22157 ft 411 kts 298°
2026-05-07 11:26 52.47138 6.43342 21779 ft 417 kts 276°
2026-05-07 11:26 52.47253 6.38598 21360 ft 417 kts 270°
2026-05-07 11:27 52.47384 6.33820 20936 ft 422 kts 274°
2026-05-07 11:27 52.47649 6.29016 20502 ft 420 kts 275°
2026-05-07 11:27 52.47935 6.24290 20079 ft 414 kts 275°
2026-05-07 11:27 52.48199 6.19632 19660 ft 408 kts 275°
2026-05-07 11:28 52.48439 6.15023 19256 ft 402 kts 274°
2026-05-07 11:28 52.48663 6.10481 18857 ft 398 kts 274°
2026-05-07 11:28 52.48878 6.05973 18464 ft 397 kts 274°
2026-05-07 11:28 52.49092 6.01455 18033 ft 397 kts 274°
2026-05-07 11:29 52.49304 5.96946 17613 ft 396 kts 274°
2026-05-07 11:29 52.49514 5.92441 17188 ft 395 kts 274°
2026-05-07 11:29 52.49723 5.87954 16787 ft 393 kts 274°
2026-05-07 11:29 52.49929 5.83490 16385 ft 390 kts 274°
2026-05-07 11:30 52.50131 5.79077 15992 ft 386 kts 274°
2026-05-07 11:30 52.50328 5.74724 15619 ft 379 kts 274°
2026-05-07 11:30 52.50521 5.70454 15234 ft 373 kts 274°
2026-05-07 11:30 52.50711 5.66244 14862 ft 367 kts 274°
2026-05-07 11:31 52.50894 5.62096 14511 ft 362 kts 274°
2026-05-07 11:31 52.51079 5.58002 14148 ft 354 kts 276°
2026-05-07 11:31 52.51353 5.55415 14001 ft 342 kts 287°
2026-05-07 11:31 52.52219 5.51957 13942 ft 315 kts 295°
2026-05-07 11:32 52.53919 5.45586 13433 ft 300 kts 292°
2026-05-07 11:32 52.54717 5.42419 13250 ft 300 kts 292°
2026-05-07 11:32 52.55508 5.39254 13068 ft 298 kts 292°
2026-05-07 11:33 52.56291 5.36106 12894 ft 297 kts 292°
2026-05-07 11:33 52.57067 5.32973 12707 ft 295 kts 292°
2026-05-07 11:33 52.57837 5.29861 12543 ft 294 kts 292°
2026-05-07 11:33 52.58608 5.26739 12363 ft 293 kts 291°
2026-05-07 11:34 52.59371 5.23641 12199 ft 292 kts 291°
2026-05-07 11:34 52.60132 5.20546 12020 ft 291 kts 291°
2026-05-07 11:34 52.60891 5.17454 11863 ft 291 kts 291°
2026-05-07 11:34 52.61648 5.14367 11692 ft 291 kts 291°
2026-05-07 11:35 52.62405 5.11276 11527 ft 291 kts 291°
2026-05-07 11:35 52.63163 5.08178 11353 ft 292 kts 291°
2026-05-07 11:35 52.63919 5.05081 11183 ft 292 kts 291°
2026-05-07 11:35 52.64675 5.01980 11011 ft 292 kts 291°
2026-05-07 11:36 52.65420 4.98914 10846 ft 292 kts 291°
2026-05-07 11:36 52.66178 4.95809 10689 ft 292 kts 291°
2026-05-07 11:36 52.66932 4.92703 10510 ft 292 kts 291°
2026-05-07 11:36 52.67686 4.89593 10350 ft 292 kts 291°
2026-05-07 11:37 52.68433 4.86513 10161 ft 286 kts 291°
2026-05-07 11:37 52.68952 4.83407 9875 ft 281 kts 272°
2026-05-07 11:37 52.68856 4.80246 9591 ft 273 kts 265°
2026-05-07 11:37 52.68789 4.77152 9296 ft 275 kts 270°
2026-05-07 11:38 52.68803 4.73963 8989 ft 275 kts 270°
2026-05-07 11:38 52.68815 4.70859 8692 ft 274 kts 270°
2026-05-07 11:38 52.68822 4.67685 8390 ft 272 kts 270°
2026-05-07 11:38 52.68825 4.64581 8090 ft 269 kts 270°
2026-05-07 11:39 52.68824 4.61553 7811 ft 267 kts 270°
2026-05-07 11:39 52.68821 4.58510 7523 ft 264 kts 270°
2026-05-07 11:39 52.68711 4.55534 7210 ft 255 kts 254°
2026-05-07 11:39 52.67822 4.53111 7144 ft 251 kts 220°
2026-05-07 11:40 52.66264 4.51647 6755 ft 267 kts 197°
2026-05-07 11:40 52.64436 4.51188 6413 ft 265 kts 182°
2026-05-07 11:40 52.62599 4.51176 6090 ft 263 kts 179°
2026-05-07 11:40 52.60806 4.51459 5776 ft 255 kts 162°
2026-05-07 11:41 52.59378 4.53022 5546 ft 246 kts 127°
2026-05-07 11:41 52.58612 4.55451 5345 ft 238 kts 107°
2026-05-07 11:41 52.58319 4.58111 5120 ft 234 kts 91°
2026-05-07 11:41 52.58309 4.60791 4923 ft 235 kts 88°
2026-05-07 11:42 52.58327 4.63457 4692 ft 231 kts 90°
2026-05-07 11:42 52.57923 4.65897 4428 ft 217 kts 130°
2026-05-07 11:42 52.56800 4.67436 4407 ft 212 kts 142°
2026-05-07 11:42 52.55767 4.69144 4208 ft 209 kts 127°
2026-05-07 11:43 52.54865 4.71008 3970 ft 206 kts 130°
2026-05-07 11:43 52.53925 4.72742 3742 ft 201 kts 138°
2026-05-07 11:43 52.52674 4.73672 3564 ft 201 kts 169°
2026-05-07 11:43 52.51293 4.74146 3390 ft 207 kts 164°
2026-05-07 11:44 52.49918 4.74811 3176 ft 205 kts 162°